Wetterdaten: Donnerstag, 24.10.2013
Datum Zeit Temp. Aussen +5cm Feuchte Auss Luftdruck Regen Sonnenschein Regendauer UV Solar Windben
24.10.2013 00:00 14,2 C 12,2 C 95 % 1011,0 hPa 0,0 l/m 0 min 0 min 0,0 UV-I 0 W/m 2,6 km/h (1 Bft)
24.10.2013 00:02 14,2 C 12,2 C 95 % 1011,0 hPa 0,0 l/m 0 min 0 min 0,0 UV-I 0 W/m 0,0 km/h (0 Bft)
24.10.2013 00:06 14,2 C 12,2 C 95 % 1011,1 hPa 0,0 l/m 0 min 0 min 0,0 UV-I 0 W/m 5,1 km/h (1 Bft)
24.10.2013 00:08 14,2 C 12,2 C 94 % 1011,1 hPa 0,0 l/m 0 min 0 min 0,0 UV-I 0 W/m 0,0 km/h (0 Bft)
24.10.2013 00:10 14,2 C 12,2 C 94 % 1011,1 hPa 0,0 l/m 0 min 0 min 0,0 UV-I 0 W/m 2,6 km/h (1 Bft)
24.10.2013 00:12 14,2 C 12,2 C 94 % 1011,1 hPa 0,0 l/m 0 min 0 min 0,0 UV-I 0 W/m 2,6 km/h (1 Bft)
24.10.2013 00:14 14,2 C 12,2 C 94 % 1011,1 hPa 0,0 l/m 0 min 0 min 0,0 UV-I 0 W/m 2,6 km/h (1 Bft)
24.10.2013 00:16 14,2 C 12,2 C 94 % 1011,1 hPa 0,0 l/m 0 min 0 min 0,0 UV-I 0 W/m 7,7 km/h (2 Bft)
24.10.2013 00:18 14,2 C 12,2 C 94 % 1011,2 hPa 0,0 l/m 0 min 0 min 0,0 UV-I 0 W/m 0,0 km/h (0 Bft)
24.10.2013 00:20 14,2 C 11,7 C 94 % 1011,2 hPa 0,0 l/m 0 min 0 min 0,0 UV-I 0 W/m 10,3 km/h (2 Bft)
24.10.2013 00:22 14,2 C 11,7 C 93 % 1011,2 hPa 0,0 l/m 0 min 0 min 0,0 UV-I 0 W/m 5,1 km/h (1 Bft)
24.10.2013 00:24 14,1 C 11,7 C 93 % 1011,2 hPa 0,0 l/m 0 min 0 min 0,0 UV-I 0 W/m 0,0 km/h (0 Bft)
24.10.2013 00:26 14,1 C 11,7 C 93 % 1011,3 hPa 0,0 l/m 0 min 0 min 0,0 UV-I 0 W/m 5,1 km/h (1 Bft)
24.10.2013 00:28 14,1 C 11,7 C 93 % 1011,3 hPa 0,0 l/m 0 min 0 min 0,0 UV-I 0 W/m 0,0 km/h (0 Bft)
24.10.2013 00:30 14,1 C 11,7 C 93 % 1011,3 hPa 0,0 l/m 0 min 0 min 0,0 UV-I 0 W/m 0,0 km/h (0 Bft)
24.10.2013 00:32 14,0 C 11,7 C 93 % 1011,3 hPa 0,0 l/m 0 min 0 min 0,0 UV-I 0 W/m 0,0 km/h (0 Bft)
24.10.2013 00:34 13,9 C 11,7 C 93 % 1011,4 hPa 0,0 l/m 0 min 0 min 0,0 UV-I 0 W/m 5,1 km/h (1 Bft)
24.10.2013 00:36 13,9 C 11,7 C 93 % 1011,4 hPa 0,0 l/m 0 min 0 min 0,0 UV-I 0 W/m 0,0 km/h (0 Bft)
24.10.2013 00:38 13,8 C 11,7 C 93 % 1011,4 hPa 0,0 l/m 0 min 0 min 0,0 UV-I 0 W/m 0,0 km/h (0 Bft)
24.10.2013 00:40 13,8 C 11,7 C 93 % 1011,4 hPa 0,0 l/m 0 min 0 min 0,0 UV-I 0 W/m 0,0 km/h (0 Bft)
24.10.2013 00:42 13,8 C 11,7 C 93 % 1011,4 hPa 0,0 l/m 0 min 0 min 0,0 UV-I 0 W/m 0,0 km/h (0 Bft)
24.10.2013 00:44 13,7 C 11,7 C 93 % 1011,3 hPa 0,0 l/m 0 min 0 min 0,0 UV-I 0 W/m 2,6 km/h (1 Bft)
24.10.2013 00:46 13,7 C 11,7 C 93 % 1011,4 hPa 0,0 l/m 0 min 0 min 0,0 UV-I 0 W/m 0,0 km/h (0 Bft)
24.10.2013 00:48 13,7 C 11,7 C 94 % 1011,4 hPa 0,0 l/m 0 min 0 min 0,0 UV-I 0 W/m 0,0 km/h (0 Bft)
24.10.2013 00:50 13,7 C 11,7 C 94 % 1011,5 hPa 0,0 l/m 0 min 0 min 0,0 UV-I 0 W/m 2,6 km/h (1 Bft)
24.10.2013 00:52 13,7 C 11,7 C 94 % 1011,5 hPa 0,0 l/m 0 min 0 min 0,0 UV-I 0 W/m 0,0 km/h (0 Bft)
24.10.2013 00:54 13,7 C 11,7 C 94 % 1011,5 hPa 0,0 l/m 0 min 0 min 0,0 UV-I 0 W/m 0,0 km/h (0 Bft)
24.10.2013 00:56 13,7 C 11,7 C 94 % 1011,6 hPa 0,0 l/m 0 min 0 min 0,0 UV-I 0 W/m 0,0 km/h (0 Bft)
24.10.2013 00:58 13,7 C 11,7 C 94 % 1011,6 hPa 0,0 l/m 0 min 0 min 0,0 UV-I 0 W/m 0,0 km/h (0 Bft)
24.10.2013 01:00 13,7 C 11,7 C 94 % 1011,6 hPa 0,0 l/m 0 min 0 min 0,0 UV-I 0 W/m 0,0 km/h (0 Bft)
24.10.2013 01:02 13,7 C 11,7 C 94 % 1011,7 hPa 0,0 l/m 0 min 0 min 0,0 UV-I 0 W/m 0,0 km/h (0 Bft)
24.10.2013 01:06 13,7 C 11,7 C 94 % 1011,8 hPa 0,0 l/m 0 min 0 min 0,0 UV-I 0 W/m 0,0 km/h (0 Bft)
24.10.2013 01:08 13,7 C 11,7 C 94 % 1011,8 hPa 0,0 l/m 0 min 0 min 0,0 UV-I 0 W/m 0,0 km/h (0 Bft)
24.10.2013 01:10 13,7 C 11,7 C 94 % 1011,7 hPa 0,0 l/m 0 min 0 min 0,0 UV-I 0 W/m 0,0 km/h (0 Bft)
24.10.2013 01:12 13,7 C 11,7 C 94 % 1011,8 hPa 0,0 l/m 0 min 0 min 0,0 UV-I 0 W/m 0,0 km/h (0 Bft)
24.10.2013 01:14 13,7 C 11,7 C 94 % 1011,8 hPa 0,0 l/m 0 min 0 min 0,0 UV-I 0 W/m 0,0 km/h (0 Bft)
24.10.2013 01:16 13,7 C 11,7 C 94 % 1011,9 hPa 0,0 l/m 0 min 0 min 0,0 UV-I 0 W/m 2,6 km/h (1 Bft)
24.10.2013 01:18 13,7 C 11,7 C 94 % 1011,8 hPa 0,0 l/m 0 min 0 min 0,0 UV-I 0 W/m 2,6 km/h (1 Bft)
24.10.2013 01:20 13,8 C 11,7 C 94 % 1011,9 hPa 0,0 l/m 0 min 0 min 0,0 UV-I 0 W/m 10,3 km/h (2 Bft)
24.10.2013 01:22 13,8 C 11,7 C 94 % 1012,0 hPa 0,0 l/m 0 min 0 min 0,0 UV-I 0 W/m 7,7 km/h (2 Bft)
24.10.2013 01:24 13,8 C 11,7 C 94 % 1011,9 hPa 0,0 l/m 0 min 0 min 0,0 UV-I 0 W/m 0,0 km/h (0 Bft)
24.10.2013 01:26 13,8 C 11,7 C 94 % 1011,9 hPa 0,0 l/m 0 min 0 min 0,0 UV-I 0 W/m 18,0 km/h (3 Bft)
24.10.2013 01:28 13,8 C 11,7 C 93 % 1011,9 hPa 0,0 l/m 0 min 0 min 0,0 UV-I 0 W/m 7,7 km/h (2 Bft)
24.10.2013 01:30 13,9 C 11,7 C 93 % 1012,0 hPa 0,0 l/m 0 min 0 min 0,0 UV-I 0 W/m 7,7 km/h (2 Bft)
24.10.2013 01:32 13,9 C 11,7 C 93 % 1012,0 hPa 0,0 l/m 0 min 0 min 0,0 UV-I 0 W/m 7,7 km/h (2 Bft)
24.10.2013 01:34 13,9 C 11,7 C 93 % 1012,0 hPa 0,0 l/m 0 min 0 min 0,0 UV-I 0 W/m 7,7 km/h (2 Bft)
24.10.2013 01:36 13,9 C 11,7 C 93 % 1012,1 hPa 0,0 l/m 0 min 0 min 0,0 UV-I 0 W/m 12,9 km/h (3 Bft)
24.10.2013 01:38 13,9 C 11,7 C 93 % 1012,1 hPa 0,0 l/m 0 min 0 min 0,0 UV-I 0 W/m 0,0 km/h (0 Bft)
24.10.2013 01:40 13,9 C 11,7 C 93 % 1012,1 hPa 0,0 l/m 0 min 0 min 0,0 UV-I 0 W/m 7,7 km/h (2 Bft)
24.10.2013 01:42 13,9 C 11,7 C 93 % 1012,1 hPa 0,0 l/m 0 min 0 min 0,0 UV-I 0 W/m 0,0 km/h (0 Bft)
24.10.2013 01:44 13,9 C 11,7 C 93 % 1012,1 hPa 0,0 l/m 0 min 0 min 0,0 UV-I 0 W/m 2,6 km/h (1 Bft)
24.10.2013 01:46 13,9 C 11,7 C 93 % 1012,1 hPa 0,0 l/m 0 min 0 min 0,0 UV-I 0 W/m 2,6 km/h (1 Bft)
24.10.2013 01:48 13,9 C 11,7 C 93 % 1012,2 hPa 0,0 l/m 0 min 0 min 0,0 UV-I 0 W/m 0,0 km/h (0 Bft)
24.10.2013 01:50 13,8 C 11,7 C 93 % 1012,2 hPa 0,0 l/m 0 min 0 min 0,0 UV-I 0 W/m 15,4 km/h (3 Bft)
24.10.2013 01:52 13,8 C 11,7 C 93 % 1012,2 hPa 0,0 l/m 0 min 0 min 0,0 UV-I 0 W/m 15,4 km/h (3 Bft)
24.10.2013 01:54 13,8 C 11,7 C 93 % 1012,2 hPa 0,0 l/m 0 min 0 min 0,0 UV-I 0 W/m 0,0 km/h (0 Bft)
24.10.2013 01:56 13,8 C 11,7 C 93 % 1012,3 hPa 0,0 l/m 0 min 0 min 0,0 UV-I 0 W/m 10,3 km/h (2 Bft)
24.10.2013 01:58 13,8 C 11,7 C 93 % 1012,4 hPa 0,0 l/m 0 min 0 min 0,0 UV-I 0 W/m 0,0 km/h (0 Bft)
24.10.2013 02:00 13,8 C 11,7 C 92 % 1012,3 hPa 0,0 l/m 0 min 0 min 0,0 UV-I 0 W/m 5,1 km/h (1 Bft)
24.10.2013 02:02 13,8 C 11,7 C 92 % 1012,4 hPa 0,0 l/m 0 min 0 min 0,0 UV-I 0 W/m 2,6 km/h (1 Bft)
24.10.2013 02:06 13,8 C 11,7 C 92 % 1012,5 hPa 0,0 l/m 0 min 0 min 0,0 UV-I 0 W/m 0,0 km/h (0 Bft)
24.10.2013 02:08 13,7 C 11,7 C 92 % 1012,4 hPa 0,0 l/m 0 min 0 min 0,0 UV-I 0 W/m 0,0 km/h (0 Bft)
24.10.2013 02:10 13,7 C 11,7 C 93 % 1012,5 hPa 0,0 l/m 0 min 0 min 0,0 UV-I 0 W/m 0,0 km/h (0 Bft)
24.10.2013 02:12 13,7 C 11,7 C 92 % 1012,5 hPa 0,0 l/m 0 min 0 min 0,0 UV-I 0 W/m 0,0 km/h (0 Bft)
24.10.2013 02:14 13,7 C 11,7 C 92 % 1012,5 hPa 0,0 l/m 0 min 0 min 0,0 UV-I 0 W/m 0,0 km/h (0 Bft)
24.10.2013 02:16 13,7 C 11,7 C 93 % 1012,5 hPa 0,0 l/m 0 min 0 min 0,0 UV-I 0 W/m 0,0 km/h (0 Bft)
24.10.2013 02:18 13,7 C 11,7 C 93 % 1012,6 hPa 0,0 l/m 0 min 0 min 0,0 UV-I 0 W/m 0,0 km/h (0 Bft)
24.10.2013 02:20 13,7 C 11,7 C 93 % 1012,6 hPa 0,0 l/m 0 min 0 min 0,0 UV-I 0 W/m 0,0 km/h (0 Bft)
24.10.2013 02:22 13,7 C 11,7 C 93 % 1012,6 hPa 0,0 l/m 0 min 0 min 0,0 UV-I 0 W/m 0,0 km/h (0 Bft)
24.10.2013 02:24 13,7 C 11,7 C 93 % 1012,6 hPa 0,0 l/m 0 min 0 min 0,0 UV-I 0 W/m 0,0 km/h (0 Bft)
24.10.2013 02:26 13,7 C 11,7 C 93 % 1012,7 hPa 0,0 l/m 0 min 0 min 0,0 UV-I 0 W/m 0,0 km/h (0 Bft)
24.10.2013 02:28 13,7 C 11,7 C 93 % 1012,6 hPa 0,0 l/m 0 min 0 min 0,0 UV-I 0 W/m 2,6 km/h (1 Bft)
24.10.2013 02:30 13,6 C 11,7 C 93 % 1012,7 hPa 0,0 l/m 0 min 0 min 0,0 UV-I 0 W/m 0,0 km/h (0 Bft)
24.10.2013 02:32 13,6 C 11,7 C 93 % 1012,7 hPa 0,0 l/m 0 min 0 min 0,0 UV-I 0 W/m 2,6 km/h (1 Bft)
24.10.2013 02:34 13,6 C 11,7 C 93 % 1012,7 hPa 0,0 l/m 0 min 0 min 0,0 UV-I 0 W/m 2,6 km/h (1 Bft)
24.10.2013 02:36 13,6 C 11,7 C 93 % 1012,6 hPa 0,0 l/m 0 min 0 min 0,0 UV-I 0 W/m 0,0 km/h (0 Bft)
24.10.2013 02:38 13,6 C 11,7 C 93 % 1012,6 hPa 0,0 l/m 0 min 0 min 0,0 UV-I 0 W/m 5,1 km/h (1 Bft)
24.10.2013 02:40 13,6 C 11,7 C 93 % 1012,7 hPa 0,0 l/m 0 min 0 min 0,0 UV-I 0 W/m 0,0 km/h (0 Bft)
24.10.2013 02:42 13,5 C 11,7 C 93 % 1012,7 hPa 0,0 l/m 0 min 0 min 0,0 UV-I 0 W/m 0,0 km/h (0 Bft)
24.10.2013 02:44 13,5 C 11,7 C 93 % 1012,7 hPa 0,0 l/m 0 min 0 min 0,0 UV-I 0 W/m 0,0 km/h (0 Bft)
24.10.2013 02:46 13,5 C 11,7 C 93 % 1012,7 hPa 0,0 l/m 0 min 0 min 0,0 UV-I 0 W/m 2,6 km/h (1 Bft)
24.10.2013 02:48 13,4 C 11,7 C 93 % 1012,8 hPa 0,0 l/m 0 min 0 min 0,0 UV-I 0 W/m 5,1 km/h (1 Bft)
24.10.2013 02:50 13,4 C 11,7 C 93 % 1012,8 hPa 0,0 l/m 0 min 0 min 0,0 UV-I 0 W/m 2,6 km/h (1 Bft)
24.10.2013 02:52 13,4 C 11,7 C 93 % 1012,8 hPa 0,0 l/m 0 min 0 min 0,0 UV-I 0 W/m 0,0 km/h (0 Bft)
24.10.2013 02:54 13,4 C 11,7 C 93 % 1012,8 hPa 0,0 l/m 0 min 0 min 0,0 UV-I 0 W/m 2,6 km/h (1 Bft)
24.10.2013 02:56 13,3 C 11,7 C 93 % 1012,9 hPa 0,0 l/m 0 min 0 min 0,0 UV-I 0 W/m 0,0 km/h (0 Bft)
24.10.2013 02:58 13,3 C 11,7 C 93 % 1013,0 hPa 0,0 l/m 0 min 0 min 0,0 UV-I 0 W/m 0,0 km/h (0 Bft)
24.10.2013 03:00 13,3 C 11,7 C 93 % 1013,0 hPa 0,0 l/m 0 min 0 min 0,0 UV-I 0 W/m 7,7 km/h (2 Bft)
24.10.2013 03:02 13,2 C 11,7 C 93 % 1013,0 hPa 0,0 l/m 0 min 0 min 0,0 UV-I 0 W/m 5,1 km/h (1 Bft)
24.10.2013 03:06 13,1 C 11,1 C 93 % 1013,1 hPa 0,0 l/m 0 min 0 min 0,0 UV-I 0 W/m 2,6 km/h (1 Bft)
24.10.2013 03:08 13,1 C 11,1 C 93 % 1013,1 hPa 0,0 l/m 0 min 0 min 0,0 UV-I 0 W/m 0,0 km/h (0 Bft)
24.10.2013 03:10 13,1 C 11,1 C 93 % 1013,0 hPa 0,0 l/m 0 min 0 min 0,0 UV-I 0 W/m 0,0 km/h (0 Bft)
24.10.2013 03:12 13,0 C 11,1 C 93 % 1013,1 hPa 0,0 l/m 0 min 0 min 0,0 UV-I 0 W/m 2,6 km/h (1 Bft)
24.10.2013 03:14 12,9 C 11,1 C 93 % 1013,1 hPa 0,0 l/m 0 min 0 min 0,0 UV-I 0 W/m 5,1 km/h (1 Bft)
24.10.2013 03:16 12,9 C 11,1 C 94 % 1013,1 hPa 0,0 l/m 0 min 0 min 0,0 UV-I 0 W/m 0,0 km/h (0 Bft)
24.10.2013 03:18 12,8 C 11,1 C 94 % 1013,2 hPa 0,0 l/m 0 min 0 min 0,0 UV-I 0 W/m 2,6 km/h (1 Bft)
24.10.2013 03:20 12,8 C 11,1 C 94 % 1013,2 hPa 0,0 l/m 0 min 0 min 0,0 UV-I 0 W/m 0,0 km/h (0 Bft)
24.10.2013 03:22 12,8 C 11,1 C 94 % 1013,2 hPa 0,0 l/m 0 min 0 min 0,0 UV-I 0 W/m 0,0 km/h (0 Bft)
24.10.2013 03:24 12,7 C 11,1 C 94 % 1013,1 hPa 0,0 l/m 0 min 0 min 0,0 UV-I 0 W/m 0,0 km/h (0 Bft)
24.10.2013 03:26 12,7 C 11,1 C 94 % 1013,1 hPa 0,0 l/m 0 min 0 min 0,0 UV-I 0 W/m 10,3 km/h (2 Bft)
24.10.2013 03:28 12,7 C 11,1 C 94 % 1013,2 hPa 0,0 l/m 0 min 0 min 0,0 UV-I 0 W/m 5,1 km/h (1 Bft)
24.10.2013 03:30 12,7 C 11,1 C 94 % 1013,2 hPa 0,0 l/m 0 min 0 min 0,0 UV-I 0 W/m 5,1 km/h (1 Bft)
24.10.2013 03:32 12,7 C 11,1 C 94 % 1013,2 hPa 0,0 l/m 0 min 0 min 0,0 UV-I 0 W/m 0,0 km/h (0 Bft)
24.10.2013 03:34 12,7 C 11,1 C 94 % 1013,3 hPa 0,0 l/m 0 min 0 min 0,0 UV-I 0 W/m 2,6 km/h (1 Bft)
24.10.2013 03:36 12,7 C 11,1 C 94 % 1013,3 hPa 0,0 l/m 0 min 0 min 0,0 UV-I 0 W/m 0,0 km/h (0 Bft)
24.10.2013 03:38 12,6 C 11,1 C 94 % 1013,2 hPa 0,0 l/m 0 min 0 min 0,0 UV-I 0 W/m 0,0 km/h (0 Bft)
24.10.2013 03:40 12,6 C 11,1 C 94 % 1013,2 hPa 0,0 l/m 0 min 0 min 0,0 UV-I 0 W/m 0,0 km/h (0 Bft)
24.10.2013 03:42 12,6 C 10,6 C 94 % 1013,1 hPa 0,0 l/m 0 min 0 min 0,0 UV-I 0 W/m 2,6 km/h (1 Bft)
24.10.2013 03:44 12,5 C 11,1 C 94 % 1013,2 hPa 0,0 l/m 0 min 0 min 0,0 UV-I 0 W/m 0,0 km/h (0 Bft)
24.10.2013 03:46 12,5 C 10,6 C 94 % 1013,2 hPa 0,0 l/m 0 min 0 min 0,0 UV-I 0 W/m 0,0 km/h (0 Bft)
24.10.2013 03:48 12,5 C 10,6 C 94 % 1013,2 hPa 0,0 l/m 0 min 0 min 0,0 UV-I 0 W/m 0,0 km/h (0 Bft)
24.10.2013 03:50 12,4 C 10,6 C 94 % 1013,3 hPa 0,0 l/m 0 min 0 min 0,0 UV-I 0 W/m 0,0 km/h (0 Bft)
24.10.2013 03:52 12,4 C 10,6 C 95 % 1013,3 hPa 0,0 l/m 0 min 0 min 0,0 UV-I 0 W/m 0,0 km/h (0 Bft)
24.10.2013 03:54 12,4 C 10,6 C 95 % 1013,3 hPa 0,0 l/m 0 min 0 min 0,0 UV-I 0 W/m 2,6 km/h (1 Bft)
24.10.2013 03:56 12,3 C 10,6 C 95 % 1013,3 hPa 0,0 l/m 0 min 0 min 0,0 UV-I 0 W/m 0,0 km/h (0 Bft)
24.10.2013 03:58 12,3 C 10,6 C 95 % 1013,3 hPa 0,0 l/m 0 min 0 min 0,0 UV-I 0 W/m 0,0 km/h (0 Bft)
24.10.2013 04:00 12,3 C 10,6 C 95 % 1013,3 hPa 0,0 l/m 0 min 0 min 0,0 UV-I 0 W/m 0,0 km/h (0 Bft)
24.10.2013 04:02 12,3 C 10,6 C 95 % 1013,4 hPa 0,0 l/m 0 min 0 min 0,0 UV-I 0 W/m 0,0 km/h (0 Bft)
24.10.2013 04:06 12,3 C 10,6 C 95 % 1013,3 hPa 0,0 l/m 0 min 0 min 0,0 UV-I 0 W/m 0,0 km/h (0 Bft)
24.10.2013 04:08 12,3 C 10,6 C 95 % 1013,3 hPa 0,0 l/m 0 min 0 min 0,0 UV-I 0 W/m 0,0 km/h (0 Bft)
24.10.2013 04:10 12,2 C 10,6 C 95 % 1013,3 hPa 0,0 l/m 0 min 0 min 0,0 UV-I 0 W/m 2,6 km/h (1 Bft)
24.10.2013 04:12 12,2 C 10,6 C 95 % 1013,3 hPa 0,0 l/m 0 min 0 min 0,0 UV-I 0 W/m 0,0 km/h (0 Bft)
24.10.2013 04:14 12,2 C 10,6 C 95 % 1013,3 hPa 0,0 l/m 0 min 0 min 0,0 UV-I 0 W/m 0,0 km/h (0 Bft)
24.10.2013 04:16 12,2 C 10,6 C 95 % 1013,3 hPa 0,0 l/m 0 min 0 min 0,0 UV-I 0 W/m 0,0 km/h (0 Bft)
24.10.2013 04:18 12,2 C 10,6 C 95 % 1013,3 hPa 0,0 l/m 0 min 0 min 0,0 UV-I 0 W/m 0,0 km/h (0 Bft)
24.10.2013 04:20 12,2 C 10,6 C 95 % 1013,3 hPa 0,0 l/m 0 min 0 min 0,0 UV-I 0 W/m 0,0 km/h (0 Bft)
24.10.2013 04:22 12,2 C 10,6 C 95 % 1013,4 hPa 0,0 l/m 0 min 0 min 0,0 UV-I 0 W/m 5,1 km/h (1 Bft)
24.10.2013 04:24 12,2 C 10,6 C 95 % 1013,4 hPa 0,0 l/m 0 min 0 min 0,0 UV-I 0 W/m 0,0 km/h (0 Bft)
24.10.2013 04:26 12,1 C 10,6 C 95 % 1013,4 hPa 0,0 l/m 0 min 0 min 0,0 UV-I 0 W/m 0,0 km/h (0 Bft)
24.10.2013 04:28 12,1 C 10,6 C 95 % 1013,5 hPa 0,0 l/m 0 min 0 min 0,0 UV-I 0 W/m 0,0 km/h (0 Bft)
24.10.2013 04:30 12,1 C 10,6 C 95 % 1013,5 hPa 0,0 l/m 0 min 0 min 0,0 UV-I 0 W/m 0,0 km/h (0 Bft)
24.10.2013 04:32 12,1 C 10,6 C 95 % 1013,5 hPa 0,0 l/m 0 min 0 min 0,0 UV-I 0 W/m 0,0 km/h (0 Bft)
24.10.2013 04:34 12,0 C 10,6 C 95 % 1013,7 hPa 0,0 l/m 0 min 0 min 0,0 UV-I 0 W/m 0,0 km/h (0 Bft)
24.10.2013 04:36 12,0 C 10,6 C 95 % 1013,6 hPa 0,0 l/m 0 min 0 min 0,0 UV-I 0 W/m 0,0 km/h (0 Bft)
24.10.2013 04:38 11,9 C 10,6 C 96 % 1013,7 hPa 0,0 l/m 0 min 0 min 0,0 UV-I 0 W/m 0,0 km/h (0 Bft)
24.10.2013 04:40 11,9 C 10,6 C 96 % 1013,6 hPa 0,0 l/m 0 min 0 min 0,0 UV-I 0 W/m 0,0 km/h (0 Bft)
24.10.2013 04:42 11,9 C 10,6 C 96 % 1013,6 hPa 0,0 l/m 0 min 0 min 0,0 UV-I 0 W/m 2,6 km/h (1 Bft)
24.10.2013 04:44 11,9 C 10,6 C 95 % 1013,6 hPa 0,0 l/m 0 min 0 min 0,0 UV-I 0 W/m 0,0 km/h (0 Bft)
24.10.2013 04:46 11,9 C 10,6 C 96 % 1013,6 hPa 0,0 l/m 0 min 0 min 0,0 UV-I 0 W/m 0,0 km/h (0 Bft)
24.10.2013 04:48 11,9 C 10,6 C 96 % 1013,7 hPa 0,0 l/m 0 min 0 min 0,0 UV-I 0 W/m 0,0 km/h (0 Bft)
24.10.2013 04:50 11,9 C 10,6 C 96 % 1013,7 hPa 0,0 l/m 0 min 0 min 0,0 UV-I 0 W/m 0,0 km/h (0 Bft)
24.10.2013 04:52 11,8 C 10,0 C 96 % 1013,7 hPa 0,0 l/m 0 min 0 min 0,0 UV-I 0 W/m 0,0 km/h (0 Bft)
24.10.2013 04:54 11,8 C 10,0 C 96 % 1013,7 hPa 0,0 l/m 0 min 0 min 0,0 UV-I 0 W/m 0,0 km/h (0 Bft)
24.10.2013 04:56 11,8 C 10,0 C 96 % 1013,9 hPa 0,0 l/m 0 min 0 min 0,0 UV-I 0 W/m 0,0 km/h (0 Bft)
24.10.2013 04:58 11,8 C 10,6 C 96 % 1013,9 hPa 0,0 l/m 0 min 0 min 0,0 UV-I 0 W/m 0,0 km/h (0 Bft)
24.10.2013 05:00 11,8 C 10,6 C 96 % 1014,0 hPa 0,0 l/m 0 min 0 min 0,0 UV-I 0 W/m 2,6 km/h (1 Bft)
24.10.2013 05:02 11,8 C 10,6 C 96 % 1013,9 hPa 0,0 l/m 0 min 0 min 0,0 UV-I 0 W/m 0,0 km/h (0 Bft)
24.10.2013 05:06 11,8 C 10,6 C 96 % 1013,9 hPa 0,0 l/m 0 min 0 min 0,0 UV-I 0 W/m 5,1 km/h (1 Bft)
24.10.2013 05:08 11,8 C 10,6 C 96 % 1014,0 hPa 0,0 l/m 0 min 0 min 0,0 UV-I 0 W/m 0,0 km/h (0 Bft)
24.10.2013 05:10 11,8 C 10,6 C 96 % 1014,0 hPa 0,0 l/m 0 min 0 min 0,0 UV-I 0 W/m 0,0 km/h (0 Bft)
24.10.2013 05:12 11,8 C 10,6 C 96 % 1014,0 hPa 0,0 l/m 0 min 0 min 0,0 UV-I 0 W/m 0,0 km/h (0 Bft)
24.10.2013 05:14 11,8 C 10,6 C 96 % 1014,1 hPa 0,0 l/m 0 min 0 min 0,0 UV-I 0 W/m 0,0 km/h (0 Bft)
24.10.2013 05:16 11,8 C 10,0 C 96 % 1014,1 hPa 0,0 l/m 0 min 0 min 0,0 UV-I 0 W/m 0,0 km/h (0 Bft)
24.10.2013 05:18 11,7 C 10,0 C 96 % 1014,2 hPa 0,0 l/m 0 min 0 min 0,0 UV-I 0 W/m 0,0 km/h (0 Bft)
24.10.2013 05:20 11,7 C 10,0 C 96 % 1014,2 hPa 0,0 l/m 0 min 0 min 0,0 UV-I 0 W/m 0,0 km/h (0 Bft)
24.10.2013 05:22 11,7 C 10,0 C 96 % 1014,2 hPa 0,0 l/m 0 min 0 min 0,0 UV-I 0 W/m 0,0 km/h (0 Bft)
24.10.2013 05:24 11,7 C 10,0 C 96 % 1014,2 hPa 0,0 l/m 0 min 0 min 0,0 UV-I 0 W/m 0,0 km/h (0 Bft)
24.10.2013 05:26 11,7 C 10,0 C 96 % 1014,3 hPa 0,0 l/m 0 min 0 min 0,0 UV-I 0 W/m 0,0 km/h (0 Bft)
24.10.2013 05:28 11,7 C 10,0 C 96 % 1014,2 hPa 0,0 l/m 0 min 0 min 0,0 UV-I 0 W/m 0,0 km/h (0 Bft)
24.10.2013 05:30 11,6 C 10,0 C 96 % 1014,3 hPa 0,0 l/m 0 min 0 min 0,0 UV-I 0 W/m 0,0 km/h (0 Bft)
24.10.2013 05:32 11,6 C 10,0 C 96 % 1014,3 hPa 0,0 l/m 0 min 0 min 0,0 UV-I 0 W/m 0,0 km/h (0 Bft)
24.10.2013 05:34 11,6 C 10,0 C 96 % 1014,3 hPa 0,0 l/m 0 min 0 min 0,0 UV-I 0 W/m 0,0 km/h (0 Bft)
24.10.2013 05:36 11,6 C 10,0 C 96 % 1014,3 hPa 0,0 l/m 0 min 0 min 0,0 UV-I 0 W/m 0,0 km/h (0 Bft)
24.10.2013 05:38 11,6 C 10,0 C 96 % 1014,3 hPa 0,0 l/m 0 min 0 min 0,0 UV-I 0 W/m 0,0 km/h (0 Bft)
24.10.2013 05:40 11,5 C 10,0 C 96 % 1014,3 hPa 0,0 l/m 0 min 0 min 0,0 UV-I 0 W/m 0,0 km/h (0 Bft)
24.10.2013 05:42 11,6 C 10,0 C 96 % 1014,3 hPa 0,0 l/m 0 min 0 min 0,0 UV-I 0 W/m 0,0 km/h (0 Bft)
24.10.2013 05:44 11,5 C 10,0 C 96 % 1014,4 hPa 0,0 l/m 0 min 0 min 0,0 UV-I 0 W/m 0,0 km/h (0 Bft)
24.10.2013 05:46 11,5 C 10,0 C 97 % 1014,4 hPa 0,0 l/m 0 min 0 min 0,0 UV-I 0 W/m 0,0 km/h (0 Bft)
24.10.2013 05:48 11,4 C 10,0 C 97 % 1014,4 hPa 0,0 l/m 0 min 0 min 0,0 UV-I 0 W/m 0,0 km/h (0 Bft)
24.10.2013 05:50 11,4 C 9,4 C 97 % 1014,4 hPa 0,0 l/m 0 min 0 min 0,0 UV-I 0 W/m 0,0 km/h (0 Bft)
24.10.2013 05:52 11,3 C 10,0 C 96 % 1014,4 hPa 0,0 l/m 0 min 0 min 0,0 UV-I 0 W/m 0,0 km/h (0 Bft)
24.10.2013 05:54 11,3 C 9,4 C 96 % 1014,5 hPa 0,0 l/m 0 min 0 min 0,0 UV-I 0 W/m 0,0 km/h (0 Bft)
24.10.2013 05:56 11,3 C 9,4 C 96 % 1014,5 hPa 0,0 l/m 0 min 0 min 0,0 UV-I 0 W/m 0,0 km/h (0 Bft)
24.10.2013 05:58 11,3 C 9,4 C 96 % 1014,5 hPa 0,0 l/m 0 min 0 min 0,0 UV-I 0 W/m 0,0 km/h (0 Bft)
24.10.2013 06:00 11,3 C 10,0 C 97 % 1014,5 hPa 0,0 l/m 0 min 0 min 0,0 UV-I 0 W/m 0,0 km/h (0 Bft)
24.10.2013 06:02 11,3 C 10,0 C 97 % 1014,5 hPa 0,0 l/m 0 min 0 min 0,0 UV-I 0 W/m 0,0 km/h (0 Bft)
24.10.2013 06:06 11,3 C 10,0 C 97 % 1014,5 hPa 0,0 l/m 0 min 0 min 0,0 UV-I 0 W/m 0,0 km/h (0 Bft)
24.10.2013 06:08 11,2 C 10,0 C 97 % 1014,5 hPa 0,0 l/m 0 min 0 min 0,0 UV-I 0 W/m 0,0 km/h (0 Bft)
24.10.2013 06:10 11,3 C 10,0 C 97 % 1014,6 hPa 0,0 l/m 0 min 0 min 0,0 UV-I 0 W/m 0,0 km/h (0 Bft)
24.10.2013 06:12 11,2 C 10,0 C 97 % 1014,6 hPa 0,0 l/m 0 min 0 min 0,0 UV-I 0 W/m 0,0 km/h (0 Bft)
24.10.2013 06:14 11,2 C 10,0 C 97 % 1014,5 hPa 0,0 l/m 0 min 0 min 0,0 UV-I 0 W/m 0,0 km/h (0 Bft)
24.10.2013 06:16 11,2 C 10,0 C 97 % 1014,6 hPa 0,0 l/m 0 min 0 min 0,0 UV-I 0 W/m 0,0 km/h (0 Bft)
24.10.2013 06:18 11,2 C 9,4 C 97 % 1014,6 hPa 0,0 l/m 0 min 0 min 0,0 UV-I 0 W/m 0,0 km/h (0 Bft)
24.10.2013 06:20 11,2 C 9,4 C 97 % 1014,7 hPa 0,0 l/m 0 min 0 min 0,0 UV-I 0 W/m 0,0 km/h (0 Bft)
24.10.2013 06:22 11,2 C 9,4 C 97 % 1014,6 hPa 0,0 l/m 0 min 0 min 0,0 UV-I 0 W/m 0,0 km/h (0 Bft)
24.10.2013 06:24 11,2 C 9,4 C 97 % 1014,7 hPa 0,0 l/m 0 min 0 min 0,0 UV-I 0 W/m 0,0 km/h (0 Bft)
24.10.2013 06:26 11,2 C 9,4 C 97 % 1014,7 hPa 0,0 l/m 0 min 0 min 0,0 UV-I 0 W/m 0,0 km/h (0 Bft)
24.10.2013 06:28 11,1 C 9,4 C 97 % 1014,7 hPa 0,0 l/m 0 min 0 min 0,0 UV-I 0 W/m 0,0 km/h (0 Bft)
24.10.2013 06:30 11,1 C 9,4 C 97 % 1014,7 hPa 0,0 l/m 0 min 0 min 0,0 UV-I 0 W/m 0,0 km/h (0 Bft)
24.10.2013 06:32 11,1 C 9,4 C 97 % 1014,7 hPa 0,0 l/m 0 min 0 min 0,0 UV-I 0 W/m 0,0 km/h (0 Bft)
24.10.2013 06:34 11,0 C 9,4 C 97 % 1014,7 hPa 0,0 l/m 0 min 0 min 0,0 UV-I 0 W/m 0,0 km/h (0 Bft)
24.10.2013 06:36 11,0 C 9,4 C 97 % 1014,7 hPa 0,0 l/m 0 min 0 min 0,0 UV-I 0 W/m 0,0 km/h (0 Bft)
24.10.2013 06:38 10,9 C 9,4 C 97 % 1014,7 hPa 0,0 l/m 0 min 0 min 0,0 UV-I 0 W/m 0,0 km/h (0 Bft)
24.10.2013 06:40 10,9 C 9,4 C 97 % 1014,7 hPa 0,0 l/m 0 min 0 min 0,0 UV-I 0 W/m 0,0 km/h (0 Bft)
24.10.2013 06:42 10,9 C 9,4 C 97 % 1014,6 hPa 0,0 l/m 0 min 0 min 0,0 UV-I 0 W/m 0,0 km/h (0 Bft)
24.10.2013 06:44 10,9 C 9,4 C 97 % 1014,7 hPa 0,0 l/m 0 min 0 min 0,0 UV-I 0 W/m 0,0 km/h (0 Bft)
24.10.2013 06:46 10,9 C 9,4 C 97 % 1014,8 hPa 0,0 l/m 0 min 0 min 0,0 UV-I 0 W/m 0,0 km/h (0 Bft)
24.10.2013 06:48 10,9 C 9,4 C 97 % 1014,7 hPa 0,0 l/m 0 min 0 min 0,0 UV-I 0 W/m 0,0 km/h (0 Bft)
24.10.2013 06:50 10,9 C 8,9 C 97 % 1014,8 hPa 0,0 l/m 0 min 0 min 0,0 UV-I 0 W/m 0,0 km/h (0 Bft)
24.10.2013 06:52 10,9 C 8,9 C 97 % 1014,8 hPa 0,0 l/m 0 min 0 min 0,0 UV-I 0 W/m 0,0 km/h (0 Bft)
24.10.2013 06:54 10,8 C 8,9 C 97 % 1014,8 hPa 0,0 l/m 0 min 0 min 0,0 UV-I 0 W/m 0,0 km/h (0 Bft)
24.10.2013 06:56 10,8 C 8,9 C 97 % 1014,8 hPa 0,0 l/m 0 min 0 min 0,0 UV-I 0 W/m 0,0 km/h (0 Bft)
24.10.2013 06:58 10,8 C 8,9 C 97 % 1014,8 hPa 0,0 l/m 0 min 0 min 0,0 UV-I 0 W/m 0,0 km/h (0 Bft)
24.10.2013 07:00 10,8 C 8,9 C 97 % 1014,9 hPa 0,0 l/m 0 min 0 min 0,0 UV-I 0 W/m 0,0 km/h (0 Bft)
24.10.2013 07:02 10,8 C 8,9 C 97 % 1014,9 hPa 0,0 l/m 0 min 0 min 0,0 UV-I 0 W/m 0,0 km/h (0 Bft)
24.10.2013 07:06 10,7 C 8,9 C 97 % 1014,8 hPa 0,0 l/m 0 min 0 min 0,0 UV-I 0 W/m 0,0 km/h (0 Bft)
24.10.2013 07:08 10,7 C 8,9 C 97 % 1014,9 hPa 0,0 l/m 0 min 0 min 0,0 UV-I 0 W/m 0,0 km/h (0 Bft)
24.10.2013 07:10 10,6 C 8,9 C 97 % 1014,9 hPa 0,0 l/m 0 min 0 min 0,0 UV-I 0 W/m 0,0 km/h (0 Bft)
24.10.2013 07:12 10,6 C 9,4 C 97 % 1014,9 hPa 0,0 l/m 0 min 0 min 0,0 UV-I 0 W/m 0,0 km/h (0 Bft)
24.10.2013 07:14 10,6 C 8,9 C 97 % 1014,9 hPa 0,0 l/m 0 min 0 min 0,0 UV-I 0 W/m 0,0 km/h (0 Bft)
24.10.2013 07:16 10,6 C 8,9 C 97 % 1014,9 hPa 0,0 l/m 0 min 0 min 0,0 UV-I 0 W/m 0,0 km/h (0 Bft)
24.10.2013 07:18 10,6 C 8,9 C 98 % 1014,9 hPa 0,0 l/m 0 min 0 min 0,0 UV-I 0 W/m 0,0 km/h (0 Bft)
24.10.2013 07:20 10,6 C 8,9 C 98 % 1015,0 hPa 0,0 l/m 0 min 0 min 0,0 UV-I 0 W/m 0,0 km/h (0 Bft)
24.10.2013 07:22 10,6 C 8,9 C 98 % 1015,0 hPa 0,0 l/m 0 min 0 min 0,0 UV-I 0 W/m 0,0 km/h (0 Bft)
24.10.2013 07:24 10,6 C 8,9 C 98 % 1015,0 hPa 0,0 l/m 0 min 0 min 0,0 UV-I 0 W/m 0,0 km/h (0 Bft)
24.10.2013 07:26 10,7 C 8,9 C 97 % 1015,0 hPa 0,0 l/m 0 min 0 min 0,0 UV-I 0 W/m 0,0 km/h (0 Bft)
24.10.2013 07:28 10,7 C 8,9 C 98 % 1015,0 hPa 0,0 l/m 0 min 0 min 0,0 UV-I 0 W/m 0,0 km/h (0 Bft)
24.10.2013 07:30 10,7 C 8,9 C 98 % 1015,1 hPa 0,0 l/m 0 min 0 min 0,0 UV-I 0 W/m 0,0 km/h (0 Bft)
24.10.2013 07:32 10,7 C 8,9 C 98 % 1015,2 hPa 0,0 l/m 0 min 0 min 0,0 UV-I 0 W/m 0,0 km/h (0 Bft)
24.10.2013 07:34 10,7 C 8,9 C 98 % 1015,1 hPa 0,0 l/m 0 min 0 min 0,0 UV-I 0 W/m 0,0 km/h (0 Bft)
24.10.2013 07:36 10,7 C 8,9 C 98 % 1015,1 hPa 0,0 l/m 0 min 0 min 0,0 UV-I 0 W/m 0,0 km/h (0 Bft)
24.10.2013 07:38 10,7 C 8,9 C 98 % 1015,2 hPa 0,0 l/m 0 min 0 min 0,0 UV-I 0 W/m 0,0 km/h (0 Bft)
24.10.2013 07:40 10,7 C 8,9 C 98 % 1015,1 hPa 0,0 l/m 0 min 0 min 0,0 UV-I 0 W/m 0,0 km/h (0 Bft)
24.10.2013 07:42 10,6 C 8,9 C 98 % 1015,1 hPa 0,0 l/m 0 min 0 min 0,0 UV-I 0 W/m 0,0 km/h (0 Bft)
24.10.2013 07:44 10,6 C 8,9 C 98 % 1015,1 hPa 0,0 l/m 0 min 0 min 0,0 UV-I 0 W/m 0,0 km/h (0 Bft)
24.10.2013 07:46 10,6 C 8,9 C 98 % 1015,2 hPa 0,0 l/m 0 min 0 min 0,0 UV-I 0 W/m 0,0 km/h (0 Bft)
24.10.2013 07:48 10,6 C 8,9 C 98 % 1015,3 hPa 0,0 l/m 0 min 0 min 0,0 UV-I 0 W/m 0,0 km/h (0 Bft)
24.10.2013 07:50 10,6 C 8,9 C 98 % 1015,3 hPa 0,0 l/m 0 min 0 min 0,0 UV-I 0 W/m 0,0 km/h (0 Bft)
24.10.2013 07:52 10,6 C 8,9 C 98 % 1015,3 hPa 0,0 l/m 0 min 0 min 0,0 UV-I 0 W/m 0,0 km/h (0 Bft)
24.10.2013 07:54 10,6 C 9,4 C 98 % 1015,3 hPa 0,0 l/m 0 min 0 min 0,0 UV-I 0 W/m 0,0 km/h (0 Bft)
24.10.2013 07:56 10,6 C 9,4 C 98 % 1015,4 hPa 0,0 l/m 0 min 0 min 0,0 UV-I 0 W/m 0,0 km/h (0 Bft)
24.10.2013 07:58 10,6 C 9,4 C 98 % 1015,4 hPa 0,0 l/m 0 min 0 min 0,0 UV-I 0 W/m 0,0 km/h (0 Bft)
24.10.2013 08:00 10,7 C 9,4 C 98 % 1015,4 hPa 0,0 l/m 0 min 0 min 0,0 UV-I 0 W/m 2,6 km/h (1 Bft)
24.10.2013 08:02 10,7 C 9,4 C 98 % 1015,4 hPa 0,0 l/m 0 min 0 min 0,0 UV-I 0 W/m 0,0 km/h (0 Bft)
24.10.2013 08:06 10,7 C 9,4 C 98 % 1015,5 hPa 0,0 l/m 0 min 0 min 0,0 UV-I 0 W/m 0,0 km/h (0 Bft)
24.10.2013 08:08 10,6 C 9,4 C 98 % 1015,5 hPa 0,0 l/m 0 min 0 min 0,0 UV-I 0 W/m 0,0 km/h (0 Bft)
24.10.2013 08:10 10,6 C 9,4 C 98 % 1015,6 hPa 0,0 l/m 0 min 0 min 0,0 UV-I 0 W/m 0,0 km/h (0 Bft)
24.10.2013 08:12 10,6 C 9,4 C 98 % 1015,6 hPa 0,0 l/m 0 min 0 min 0,0 UV-I 0 W/m 0,0 km/h (0 Bft)
24.10.2013 08:14 10,6 C 9,4 C 98 % 1015,5 hPa 0,0 l/m 0 min 0 min 0,0 UV-I 5 W/m 0,0 km/h (0 Bft)
24.10.2013 08:16 10,6 C 9,4 C 98 % 1015,6 hPa 0,0 l/m 0 min 0 min 0,0 UV-I 5 W/m 0,0 km/h (0 Bft)
24.10.2013 08:18 10,6 C 9,4 C 98 % 1015,7 hPa 0,0 l/m 0 min 0 min 0,0 UV-I 5 W/m 0,0 km/h (0 Bft)
24.10.2013 08:20 10,6 C 9,4 C 98 % 1015,8 hPa 0,0 l/m 0 min 0 min 0,0 UV-I 7 W/m 0,0 km/h (0 Bft)
24.10.2013 08:22 10,6 C 9,4 C 98 % 1015,8 hPa 0,0 l/m 0 min 0 min 0,0 UV-I 7 W/m 0,0 km/h (0 Bft)
24.10.2013 08:24 10,6 C 9,4 C 98 % 1015,9 hPa 0,0 l/m 0 min 0 min 0,0 UV-I 9 W/m 0,0 km/h (0 Bft)
24.10.2013 08:26 10,6 C 9,4 C 98 % 1015,9 hPa 0,0 l/m 0 min 0 min 0,0 UV-I 9 W/m 0,0 km/h (0 Bft)
24.10.2013 08:28 10,6 C 9,4 C 98 % 1015,9 hPa 0,0 l/m 0 min 0 min 0,0 UV-I 11 W/m 0,0 km/h (0 Bft)
24.10.2013 08:30 10,6 C 9,4 C 98 % 1015,9 hPa 0,0 l/m 0 min 0 min 0,0 UV-I 11 W/m 0,0 km/h (0 Bft)
24.10.2013 08:32 10,6 C 9,4 C 98 % 1016,1 hPa 0,0 l/m 0 min 0 min 0,0 UV-I 12 W/m 2,6 km/h (1 Bft)
24.10.2013 08:34 10,6 C 9,4 C 98 % 1016,1 hPa 0,0 l/m 0 min 0 min 0,0 UV-I 14 W/m 0,0 km/h (0 Bft)
24.10.2013 08:36 10,6 C 9,4 C 98 % 1016,1 hPa 0,0 l/m 0 min 0 min 0,0 UV-I 14 W/m 0,0 km/h (0 Bft)
24.10.2013 08:38 10,5 C 9,4 C 98 % 1016,1 hPa 0,0 l/m 0 min 0 min 0,0 UV-I 16 W/m 0,0 km/h (0 Bft)
24.10.2013 08:40 10,6 C 9,4 C 98 % 1016,2 hPa 0,0 l/m 0 min 0 min 0,0 UV-I 18 W/m 0,0 km/h (0 Bft)
24.10.2013 08:42 10,6 C 9,4 C 98 % 1016,2 hPa 0,0 l/m 0 min 0 min 0,0 UV-I 18 W/m 2,6 km/h (1 Bft)
24.10.2013 08:44 10,6 C 9,4 C 98 % 1016,2 hPa 0,0 l/m 0 min 0 min 0,0 UV-I 19 W/m 0,0 km/h (0 Bft)
24.10.2013 08:46 10,6 C 9,4 C 98 % 1016,2 hPa 0,0 l/m 0 min 0 min 0,0 UV-I 21 W/m 0,0 km/h (0 Bft)
24.10.2013 08:48 10,6 C 9,4 C 98 % 1016,2 hPa 0,0 l/m 0 min 0 min 0,0 UV-I 21 W/m 0,0 km/h (0 Bft)
24.10.2013 08:50 10,6 C 9,4 C 98 % 1016,3 hPa 0,0 l/m 0 min 0 min 0,0 UV-I 23 W/m 2,6 km/h (1 Bft)
24.10.2013 08:52 10,7 C 9,4 C 98 % 1016,4 hPa 0,0 l/m 0 min 0 min 0,0 UV-I 25 W/m 0,0 km/h (0 Bft)
24.10.2013 08:54 10,7 C 9,4 C 98 % 1016,4 hPa 0,0 l/m 0 min 0 min 0,0 UV-I 26 W/m 0,0 km/h (0 Bft)
24.10.2013 08:56 10,7 C 9,4 C 98 % 1016,4 hPa 0,0 l/m 0 min 0 min 0,0 UV-I 33 W/m 0,0 km/h (0 Bft)
24.10.2013 08:58 10,8 C 9,4 C 98 % 1016,4 hPa 0,0 l/m 0 min 0 min 0,0 UV-I 37 W/m 0,0 km/h (0 Bft)
24.10.2013 09:00 10,8 C 9,4 C 98 % 1016,5 hPa 0,0 l/m 0 min 0 min 0,0 UV-I 35 W/m 0,0 km/h (0 Bft)
24.10.2013 09:02 10,8 C 9,4 C 98 % 1016,5 hPa 0,0 l/m 0 min 0 min 0,0 UV-I 30 W/m 0,0 km/h (0 Bft)
24.10.2013 09:06 10,8 C 9,4 C 98 % 1016,5 hPa 0,0 l/m 0 min 0 min 0,0 UV-I 30 W/m 0,0 km/h (0 Bft)
24.10.2013 09:08 10,8 C 10,0 C 98 % 1016,5 hPa 0,0 l/m 0 min 0 min 0,0 UV-I 32 W/m 5,1 km/h (1 Bft)
24.10.2013 09:10 10,8 C 10,0 C 98 % 1016,5 hPa 0,0 l/m 0 min 0 min 0,0 UV-I 32 W/m 0,0 km/h (0 Bft)
24.10.2013 09:12 10,8 C 10,0 C 98 % 1016,5 hPa 0,0 l/m 0 min 0 min 0,0 UV-I 33 W/m 0,0 km/h (0 Bft)
24.10.2013 09:14 10,8 C 9,4 C 98 % 1016,5 hPa 0,0 l/m 0 min 0 min 0,0 UV-I 33 W/m 0,0 km/h (0 Bft)
24.10.2013 09:16 10,8 C 9,4 C 98 % 1016,5 hPa 0,0 l/m 0 min 0 min 0,0 UV-I 33 W/m 0,0 km/h (0 Bft)
24.10.2013 09:18 10,8 C 10,0 C 98 % 1016,5 hPa 0,0 l/m 0 min 0 min 0,0 UV-I 35 W/m 0,0 km/h (0 Bft)
24.10.2013 09:20 10,9 C 10,0 C 98 % 1016,5 hPa 0,0 l/m 0 min 0 min 0,0 UV-I 35 W/m 2,6 km/h (1 Bft)
24.10.2013 09:22 10,9 C 10,0 C 98 % 1016,6 hPa 0,0 l/m 0 min 0 min 0,0 UV-I 42 W/m 0,0 km/h (0 Bft)
24.10.2013 09:24 11,1 C 10,0 C 99 % 1016,6 hPa 0,0 l/m 0 min 2 min 0,0 UV-I 67 W/m 0,0 km/h (0 Bft)
24.10.2013 09:26 11,1 C 10,0 C 99 % 1016,6 hPa 0,0 l/m 0 min 2 min 0,0 UV-I 86 W/m 2,6 km/h (1 Bft)
24.10.2013 09:28 11,1 C 10,0 C 99 % 1016,7 hPa 0,0 l/m 0 min 0 min 0,0 UV-I 88 W/m 0,0 km/h (0 Bft)
24.10.2013 09:30 11,2 C 10,0 C 99 % 1016,7 hPa 0,0 l/m 0 min 0 min 0,0 UV-I 93 W/m 0,0 km/h (0 Bft)
24.10.2013 09:32 11,2 C 10,0 C 99 % 1016,7 hPa 0,0 l/m 0 min 0 min 0,0 UV-I 97 W/m 0,0 km/h (0 Bft)
24.10.2013 09:34 11,2 C 10,0 C 98 % 1016,7 hPa 0,0 l/m 0 min 0 min 0,0 UV-I 98 W/m 0,0 km/h (0 Bft)
24.10.2013 09:36 11,2 C 10,0 C 98 % 1016,8 hPa 0,0 l/m 2 min 0 min 0,0 UV-I 104 W/m 0,0 km/h (0 Bft)
24.10.2013 09:38 11,3 C 10,0 C 98 % 1016,9 hPa 0,0 l/m 0 min 0 min 0,0 UV-I 105 W/m 0,0 km/h (0 Bft)
24.10.2013 09:40 11,3 C 10,0 C 98 % 1017,0 hPa 0,0 l/m 2 min 0 min 0,0 UV-I 109 W/m 0,0 km/h (0 Bft)
24.10.2013 09:42 11,3 C 10,0 C 98 % 1017,0 hPa 0,0 l/m 2 min 0 min 0,0 UV-I 114 W/m 2,6 km/h (1 Bft)
24.10.2013 09:44 11,4 C 10,6 C 98 % 1017,1 hPa 0,0 l/m 2 min 0 min 0,0 UV-I 120 W/m 2,6 km/h (1 Bft)
24.10.2013 09:46 11,4 C 10,6 C 99 % 1017,0 hPa 0,0 l/m 2 min 0 min 0,0 UV-I 123 W/m 0,0 km/h (0 Bft)
24.10.2013 09:48 11,4 C 10,6 C 99 % 1017,1 hPa 0,0 l/m 2 min 0 min 0,0 UV-I 127 W/m 0,0 km/h (0 Bft)
24.10.2013 09:50 11,5 C 10,6 C 99 % 1017,1 hPa 0,0 l/m 2 min 0 min 0,0 UV-I 130 W/m 0,0 km/h (0 Bft)
24.10.2013 09:52 11,6 C 10,6 C 99 % 1017,1 hPa 0,0 l/m 2 min 0 min 0,0 UV-I 134 W/m 0,0 km/h (0 Bft)
24.10.2013 09:54 11,6 C 10,6 C 99 % 1017,1 hPa 0,0 l/m 2 min 0 min 0,0 UV-I 139 W/m 0,0 km/h (0 Bft)
24.10.2013 09:56 11,6 C 10,6 C 99 % 1017,1 hPa 0,0 l/m 2 min 0 min 0,0 UV-I 141 W/m 0,0 km/h (0 Bft)
24.10.2013 09:58 11,7 C 10,6 C 99 % 1017,1 hPa 0,0 l/m 2 min 0 min 0,0 UV-I 144 W/m 0,0 km/h (0 Bft)
24.10.2013 10:00 11,7 C 10,6 C 98 % 1017,2 hPa 0,0 l/m 2 min 0 min 0,0 UV-I 148 W/m 0,0 km/h (0 Bft)
24.10.2013 10:03 11,8 C 10,6 C 99 % 1017,3 hPa 0,0 l/m 2 min 0 min 0,0 UV-I 156 W/m 0,0 km/h (0 Bft)
24.10.2013 10:05 11,9 C 10,6 C 99 % 1017,3 hPa 0,0 l/m 2 min 0 min 0,0 UV-I 160 W/m 0,0 km/h (0 Bft)
24.10.2013 10:06 11,9 C 10,6 C 99 % 1017,3 hPa 0,0 l/m 1 min 0 min 0,0 UV-I 163 W/m 0,0 km/h (0 Bft)
24.10.2013 10:08 12,0 C 10,6 C 99 % 1017,4 hPa 0,0 l/m 2 min 0 min 0,0 UV-I 172 W/m 2,6 km/h (1 Bft)
24.10.2013 10:10 12,1 C 11,1 C 99 % 1017,4 hPa 0,0 l/m 2 min 0 min 0,0 UV-I 185 W/m 2,6 km/h (1 Bft)
24.10.2013 10:12 12,1 C 11,1 C 99 % 1017,5 hPa 0,0 l/m 2 min 0 min 0,0 UV-I 183 W/m 0,0 km/h (0 Bft)
24.10.2013 10:14 12,2 C 11,1 C 99 % 1017,4 hPa 0,0 l/m 2 min 0 min 0,0 UV-I 186 W/m 0,0 km/h (0 Bft)
24.10.2013 10:16 12,3 C 11,1 C 99 % 1017,5 hPa 0,0 l/m 2 min 0 min 0,0 UV-I 185 W/m 0,0 km/h (0 Bft)
24.10.2013 10:18 12,3 C 11,1 C 99 % 1017,5 hPa 0,0 l/m 2 min 0 min 0,0 UV-I 193 W/m 0,0 km/h (0 Bft)
24.10.2013 10:20 12,4 C 11,1 C 99 % 1017,5 hPa 0,0 l/m 2 min 0 min 0,0 UV-I 197 W/m 0,0 km/h (0 Bft)
24.10.2013 10:22 12,5 C 11,1 C 99 % 1017,6 hPa 0,0 l/m 2 min 0 min 0,0 UV-I 199 W/m 0,0 km/h (0 Bft)
24.10.2013 10:24 12,6 C 11,1 C 99 % 1017,6 hPa 0,0 l/m 2 min 0 min 0,0 UV-I 202 W/m 0,0 km/h (0 Bft)
24.10.2013 10:26 12,6 C 11,1 C 99 % 1017,7 hPa 0,0 l/m 2 min 0 min 0,0 UV-I 206 W/m 0,0 km/h (0 Bft)
24.10.2013 10:28 12,7 C 11,1 C 98 % 1017,7 hPa 0,0 l/m 2 min 0 min 0,0 UV-I 206 W/m 0,0 km/h (0 Bft)
24.10.2013 10:30 12,7 C 11,1 C 98 % 1017,7 hPa 0,0 l/m 2 min 0 min 0,0 UV-I 199 W/m 0,0 km/h (0 Bft)
24.10.2013 10:32 12,8 C 11,1 C 99 % 1017,7 hPa 0,0 l/m 2 min 0 min 0,0 UV-I 209 W/m 0,0 km/h (0 Bft)
24.10.2013 10:34 12,8 C 11,7 C 98 % 1017,7 hPa 0,0 l/m 2 min 0 min 0,0 UV-I 214 W/m 0,0 km/h (0 Bft)
24.10.2013 10:36 12,8 C 11,7 C 98 % 1017,7 hPa 0,0 l/m 2 min 0 min 0,0 UV-I 218 W/m 0,0 km/h (0 Bft)
24.10.2013 10:38 12,8 C 11,7 C 98 % 1017,8 hPa 0,0 l/m 2 min 0 min 0,0 UV-I 230 W/m 0,0 km/h (0 Bft)
24.10.2013 10:40 12,9 C 11,7 C 98 % 1017,9 hPa 0,0 l/m 0 min 0 min 0,0 UV-I 167 W/m 2,6 km/h (1 Bft)
24.10.2013 10:42 12,9 C 11,7 C 98 % 1017,9 hPa 0,0 l/m 2 min 0 min 0,0 UV-I 206 W/m 0,0 km/h (0 Bft)
24.10.2013 10:44 12,9 C 11,7 C 98 % 1018,0 hPa 0,0 l/m 2 min 0 min 0,0 UV-I 250 W/m 2,6 km/h (1 Bft)
24.10.2013 10:46 13,0 C 11,7 C 98 % 1018,0 hPa 0,0 l/m 2 min 0 min 0,0 UV-I 244 W/m 5,1 km/h (1 Bft)
24.10.2013 10:48 13,1 C 11,7 C 98 % 1018,0 hPa 0,0 l/m 2 min 0 min 0,0 UV-I 241 W/m 0,0 km/h (0 Bft)
24.10.2013 10:50 13,1 C 11,7 C 97 % 1018,1 hPa 0,0 l/m 0 min 0 min 0,0 UV-I 165 W/m 0,0 km/h (0 Bft)
24.10.2013 10:52 13,2 C 11,7 C 97 % 1018,2 hPa 0,0 l/m 2 min 0 min 0,0 UV-I 278 W/m 0,0 km/h (0 Bft)
24.10.2013 10:54 13,3 C 11,7 C 97 % 1018,1 hPa 0,0 l/m 2 min 0 min 0,0 UV-I 220 W/m 0,0 km/h (0 Bft)
24.10.2013 10:56 13,3 C 11,7 C 97 % 1018,2 hPa 0,0 l/m 0 min 0 min 0,0 UV-I 172 W/m 5,1 km/h (1 Bft)
24.10.2013 10:58 13,3 C 12,2 C 97 % 1018,2 hPa 0,0 l/m 0 min 0 min 0,0 UV-I 137 W/m 7,7 km/h (2 Bft)
24.10.2013 11:00 13,3 C 12,2 C 96 % 1018,3 hPa 0,0 l/m 0 min 0 min 0,0 UV-I 155 W/m 0,0 km/h (0 Bft)
24.10.2013 11:02 13,3 C 12,2 C 96 % 1018,3 hPa 0,0 l/m 0 min 0 min 0,0 UV-I 120 W/m 0,0 km/h (0 Bft)
24.10.2013 11:06 13,3 C 12,2 C 96 % 1018,3 hPa 0,0 l/m 0 min 0 min 0,0 UV-I 114 W/m 5,1 km/h (1 Bft)
24.10.2013 11:08 13,3 C 12,2 C 95 % 1018,3 hPa 0,0 l/m 0 min 0 min 0,0 UV-I 95 W/m 2,6 km/h (1 Bft)
24.10.2013 11:10 13,2 C 11,7 C 95 % 1018,3 hPa 0,0 l/m 0 min 0 min 0,0 UV-I 90 W/m 0,0 km/h (0 Bft)
24.10.2013 11:12 13,2 C 11,7 C 95 % 1018,3 hPa 0,0 l/m 0 min 0 min 0,0 UV-I 86 W/m 2,6 km/h (1 Bft)
24.10.2013 11:14 13,2 C 11,7 C 95 % 1018,3 hPa 0,0 l/m 0 min 0 min 0,0 UV-I 74 W/m 0,0 km/h (0 Bft)
24.10.2013 11:16 13,2 C 11,7 C 94 % 1018,3 hPa 0,0 l/m 0 min 0 min 0,0 UV-I 74 W/m 10,3 km/h (2 Bft)
24.10.2013 11:18 13,2 C 11,7 C 94 % 1018,2 hPa 0,0 l/m 0 min 0 min 0,0 UV-I 74 W/m 0,0 km/h (0 Bft)
24.10.2013 11:20 13,2 C 11,7 C 94 % 1018,3 hPa 0,0 l/m 2 min 0 min 0,0 UV-I 299 W/m 5,1 km/h (1 Bft)
24.10.2013 11:22 13,3 C 11,7 C 94 % 1018,3 hPa 0,0 l/m 0 min 0 min 0,0 UV-I 151 W/m 2,6 km/h (1 Bft)
24.10.2013 11:24 13,3 C 11,7 C 94 % 1018,3 hPa 0,0 l/m 0 min 0 min 0,0 UV-I 95 W/m 0,0 km/h (0 Bft)
24.10.2013 11:26 13,4 C 12,2 C 94 % 1018,3 hPa 0,0 l/m 2 min 0 min 0,5 UV-I 304 W/m 2,6 km/h (1 Bft)
24.10.2013 11:28 13,6 C 12,2 C 94 % 1018,3 hPa 0,0 l/m 2 min 0 min 0,5 UV-I 320 W/m 0,0 km/h (0 Bft)
24.10.2013 11:30 13,7 C 12,2 C 94 % 1018,4 hPa 0,0 l/m 2 min 0 min 0,5 UV-I 323 W/m 0,0 km/h (0 Bft)
24.10.2013 11:32 13,8 C 12,2 C 93 % 1018,4 hPa 0,0 l/m 2 min 0 min 0,5 UV-I 322 W/m 0,0 km/h (0 Bft)
24.10.2013 11:34 13,8 C 12,2 C 93 % 1018,4 hPa 0,0 l/m 2 min 0 min 0,5 UV-I 334 W/m 0,0 km/h (0 Bft)
24.10.2013 11:36 14,0 C 12,2 C 92 % 1018,4 hPa 0,0 l/m 2 min 0 min 0,5 UV-I 336 W/m 0,0 km/h (0 Bft)
24.10.2013 11:38 14,2 C 12,2 C 92 % 1018,5 hPa 0,0 l/m 2 min 0 min 0,6 UV-I 352 W/m 2,6 km/h (1 Bft)
24.10.2013 11:40 14,2 C 12,8 C 91 % 1018,4 hPa 0,0 l/m 2 min 0 min 0,6 UV-I 339 W/m 10,3 km/h (2 Bft)
24.10.2013 11:42 14,3 C 12,8 C 90 % 1018,5 hPa 0,0 l/m 2 min 0 min 0,6 UV-I 336 W/m 5,1 km/h (1 Bft)
24.10.2013 11:44 14,4 C 12,8 C 89 % 1018,5 hPa 0,0 l/m 2 min 0 min 0,6 UV-I 332 W/m 2,6 km/h (1 Bft)
24.10.2013 11:46 14,3 C 12,8 C 88 % 1018,4 hPa 0,0 l/m 2 min 0 min 0,6 UV-I 338 W/m 10,3 km/h (2 Bft)
24.10.2013 11:48 14,3 C 12,8 C 88 % 1018,5 hPa 0,0 l/m 2 min 0 min 0,6 UV-I 336 W/m 0,0 km/h (0 Bft)
24.10.2013 11:50 14,4 C 12,8 C 89 % 1018,4 hPa 0,0 l/m 2 min 0 min 0,7 UV-I 346 W/m 0,0 km/h (0 Bft)
24.10.2013 11:52 14,3 C 12,8 C 88 % 1018,4 hPa 0,0 l/m 2 min 0 min 0,7 UV-I 346 W/m 7,7 km/h (2 Bft)
24.10.2013 11:54 14,4 C 12,8 C 88 % 1018,4 hPa 0,0 l/m 2 min 0 min 0,7 UV-I 339 W/m 5,1 km/h (1 Bft)
24.10.2013 11:56 14,6 C 12,8 C 89 % 1018,4 hPa 0,0 l/m 2 min 0 min 0,7 UV-I 350 W/m 0,0 km/h (0 Bft)
24.10.2013 11:58 14,6 C 12,8 C 87 % 1018,5 hPa 0,0 l/m 2 min 0 min 0,7 UV-I 353 W/m 5,1 km/h (1 Bft)
24.10.2013 12:00 14,7 C 12,8 C 87 % 1018,5 hPa 0,0 l/m 2 min 0 min 0,7 UV-I 348 W/m 7,7 km/h (2 Bft)
24.10.2013 12:02 14,8 C 12,8 C 87 % 1018,6 hPa 0,0 l/m 2 min 0 min 0,7 UV-I 339 W/m 0,0 km/h (0 Bft)
24.10.2013 12:06 14,6 C 12,8 C 87 % 1018,6 hPa 0,0 l/m 2 min 0 min 0,8 UV-I 360 W/m 7,7 km/h (2 Bft)
24.10.2013 12:08 14,8 C 12,8 C 87 % 1018,5 hPa 0,0 l/m 2 min 0 min 0,8 UV-I 369 W/m 0,0 km/h (0 Bft)
24.10.2013 12:10 14,9 C 12,8 C 86 % 1018,6 hPa 0,0 l/m 2 min 0 min 0,8 UV-I 376 W/m 0,0 km/h (0 Bft)
24.10.2013 12:12 14,9 C 12,8 C 86 % 1018,6 hPa 0,0 l/m 2 min 0 min 0,8 UV-I 374 W/m 2,6 km/h (1 Bft)
24.10.2013 12:14 14,9 C 12,8 C 86 % 1018,6 hPa 0,0 l/m 2 min 0 min 0,8 UV-I 381 W/m 0,0 km/h (0 Bft)
24.10.2013 12:16 14,9 C 12,8 C 86 % 1018,6 hPa 0,0 l/m 2 min 0 min 0,8 UV-I 251 W/m 0,0 km/h (0 Bft)
24.10.2013 12:18 15,0 C 13,3 C 87 % 1018,6 hPa 0,0 l/m 2 min 0 min 0,8 UV-I 380 W/m 2,6 km/h (1 Bft)
24.10.2013 12:20 14,9 C 13,3 C 86 % 1018,6 hPa 0,0 l/m 2 min 0 min 0,6 UV-I 369 W/m 2,6 km/h (1 Bft)
24.10.2013 12:22 14,9 C 12,8 C 87 % 1018,6 hPa 0,0 l/m 0 min 0 min 0,0 UV-I 70 W/m 0,0 km/h (0 Bft)
24.10.2013 12:24 14,8 C 12,8 C 86 % 1018,5 hPa 0,0 l/m 0 min 0 min 0,0 UV-I 84 W/m 0,0 km/h (0 Bft)
24.10.2013 12:26 14,6 C 12,8 C 87 % 1018,5 hPa 0,0 l/m 0 min 0 min 0,0 UV-I 84 W/m 0,0 km/h (0 Bft)
24.10.2013 12:28 14,5 C 12,8 C 87 % 1018,5 hPa 0,0 l/m 2 min 0 min 0,5 UV-I 392 W/m 0,0 km/h (0 Bft)
24.10.2013 12:30 14,5 C 12,8 C 88 % 1018,6 hPa 0,0 l/m 2 min 0 min 0,5 UV-I 404 W/m 0,0 km/h (0 Bft)
24.10.2013 12:32 14,6 C 12,8 C 87 % 1018,5 hPa 0,0 l/m 2 min 0 min 0,5 UV-I 371 W/m 5,1 km/h (1 Bft)
24.10.2013 12:34 14,7 C 12,8 C 87 % 1018,4 hPa 0,0 l/m 2 min 0 min 0,5 UV-I 397 W/m 5,1 km/h (1 Bft)
24.10.2013 12:36 14,8 C 13,3 C 87 % 1018,5 hPa 0,0 l/m 2 min 0 min 0,5 UV-I 399 W/m 2,6 km/h (1 Bft)
24.10.2013 12:38 14,9 C 13,3 C 86 % 1018,4 hPa 0,0 l/m 2 min 0 min 0,5 UV-I 404 W/m 0,0 km/h (0 Bft)
24.10.2013 12:40 15,0 C 13,3 C 86 % 1018,5 hPa 0,0 l/m 2 min 0 min 0,5 UV-I 343 W/m 0,0 km/h (0 Bft)
24.10.2013 12:42 15,0 C 13,3 C 85 % 1018,5 hPa 0,0 l/m 2 min 0 min 0,5 UV-I 406 W/m 10,3 km/h (2 Bft)
24.10.2013 12:44 15,2 C 13,3 C 86 % 1018,4 hPa 0,0 l/m 2 min 0 min 0,5 UV-I 418 W/m 0,0 km/h (0 Bft)
24.10.2013 12:46 15,4 C 13,9 C 86 % 1018,4 hPa 0,0 l/m 2 min 0 min 0,5 UV-I 417 W/m 0,0 km/h (0 Bft)
24.10.2013 12:48 15,6 C 13,9 C 83 % 1018,4 hPa 0,0 l/m 2 min 0 min 0,5 UV-I 408 W/m 15,4 km/h (3 Bft)
24.10.2013 12:50 15,6 C 13,9 C 83 % 1018,4 hPa 0,0 l/m 2 min 0 min 0,5 UV-I 411 W/m 10,3 km/h (2 Bft)
24.10.2013 12:52 15,6 C 13,9 C 83 % 1018,4 hPa 0,0 l/m 2 min 0 min 0,5 UV-I 418 W/m 0,0 km/h (0 Bft)
24.10.2013 12:54 15,7 C 13,9 C 81 % 1018,3 hPa 0,0 l/m 0 min 0 min 0,5 UV-I 77 W/m 7,7 km/h (2 Bft)
24.10.2013 12:56 15,6 C 13,9 C 81 % 1018,4 hPa 0,0 l/m 2 min 0 min 0,5 UV-I 415 W/m 0,0 km/h (0 Bft)
24.10.2013 12:58 15,7 C 13,9 C 81 % 1018,3 hPa 0,0 l/m 2 min 0 min 0,5 UV-I 417 W/m 5,1 km/h (1 Bft)
24.10.2013 13:00 15,7 C 13,9 C 81 % 1018,3 hPa 0,0 l/m 2 min 0 min 0,5 UV-I 411 W/m 0,0 km/h (0 Bft)
24.10.2013 13:02 15,7 C 13,9 C 82 % 1018,3 hPa 0,0 l/m 2 min 0 min 0,5 UV-I 387 W/m 5,1 km/h (1 Bft)
24.10.2013 13:06 15,7 C 13,9 C 83 % 1018,3 hPa 0,0 l/m 2 min 0 min 0,5 UV-I 411 W/m 2,6 km/h (1 Bft)
24.10.2013 13:08 15,7 C 13,9 C 82 % 1018,3 hPa 0,0 l/m 2 min 0 min 0,6 UV-I 411 W/m 10,3 km/h (2 Bft)
24.10.2013 13:10 15,7 C 13,9 C 82 % 1018,3 hPa 0,0 l/m 2 min 0 min 0,6 UV-I 411 W/m 0,0 km/h (0 Bft)
24.10.2013 13:12 15,7 C 13,9 C 82 % 1018,3 hPa 0,0 l/m 0 min 0 min 0,6 UV-I 202 W/m 2,6 km/h (1 Bft)
24.10.2013 13:14 15,6 C 13,9 C 82 % 1018,2 hPa 0,0 l/m 0 min 0 min 0,5 UV-I 109 W/m 0,0 km/h (0 Bft)
24.10.2013 13:16 15,4 C 13,9 C 81 % 1018,2 hPa 0,0 l/m 0 min 0 min 0,5 UV-I 74 W/m 2,6 km/h (1 Bft)
24.10.2013 13:18 15,3 C 13,3 C 82 % 1018,2 hPa 0,0 l/m 0 min 0 min 0,8 UV-I 86 W/m 0,0 km/h (0 Bft)
24.10.2013 13:20 15,3 C 13,9 C 82 % 1018,3 hPa 0,0 l/m 2 min 0 min 0,9 UV-I 429 W/m 2,6 km/h (1 Bft)
24.10.2013 13:22 15,4 C 13,9 C 83 % 1018,3 hPa 0,0 l/m 2 min 0 min 0,9 UV-I 429 W/m 2,6 km/h (1 Bft)
24.10.2013 13:24 15,5 C 13,9 C 82 % 1018,3 hPa 0,0 l/m 2 min 0 min 1,0 UV-I 427 W/m 10,3 km/h (2 Bft)
24.10.2013 13:26 15,7 C 13,9 C 82 % 1018,3 hPa 0,0 l/m 2 min 0 min 1,0 UV-I 411 W/m 7,7 km/h (2 Bft)
24.10.2013 13:28 15,8 C 14,4 C 80 % 1018,3 hPa 0,0 l/m 2 min 0 min 1,0 UV-I 413 W/m 10,3 km/h (2 Bft)
24.10.2013 13:30 15,8 C 14,4 C 80 % 1018,3 hPa 0,0 l/m 0 min 0 min 0,5 UV-I 65 W/m 0,0 km/h (0 Bft)
24.10.2013 13:32 15,7 C 13,9 C 81 % 1018,2 hPa 0,0 l/m 0 min 0 min 0,5 UV-I 67 W/m 0,0 km/h (0 Bft)
24.10.2013 13:34 15,5 C 13,9 C 82 % 1018,2 hPa 0,0 l/m 2 min 0 min 0,9 UV-I 408 W/m 0,0 km/h (0 Bft)
24.10.2013 13:36 15,6 C 13,9 C 82 % 1018,1 hPa 0,0 l/m 2 min 0 min 1,0 UV-I 420 W/m 0,0 km/h (0 Bft)
24.10.2013 13:38 15,8 C 13,9 C 82 % 1018,0 hPa 0,0 l/m 2 min 0 min 1,0 UV-I 422 W/m 7,7 km/h (2 Bft)
24.10.2013 13:40 15,9 C 14,4 C 80 % 1018,0 hPa 0,0 l/m 2 min 0 min 1,0 UV-I 422 W/m 2,6 km/h (1 Bft)
24.10.2013 13:42 16,1 C 14,4 C 80 % 1018,0 hPa 0,0 l/m 2 min 0 min 1,0 UV-I 425 W/m 0,0 km/h (0 Bft)
24.10.2013 13:44 16,2 C 14,4 C 79 % 1018,0 hPa 0,0 l/m 2 min 0 min 1,0 UV-I 432 W/m 5,1 km/h (1 Bft)
24.10.2013 13:46 16,3 C 14,4 C 77 % 1018,0 hPa 0,0 l/m 2 min 0 min 1,0 UV-I 441 W/m 10,3 km/h (2 Bft)
24.10.2013 13:48 16,4 C 15,0 C 77 % 1018,0 hPa 0,0 l/m 2 min 0 min 1,0 UV-I 443 W/m 5,1 km/h (1 Bft)
24.10.2013 13:50 16,6 C 15,0 C 77 % 1018,0 hPa 0,0 l/m 2 min 0 min 1,0 UV-I 434 W/m 0,0 km/h (0 Bft)
24.10.2013 13:52 16,5 C 15,0 C 78 % 1018,0 hPa 0,0 l/m 2 min 0 min 1,0 UV-I 422 W/m 0,0 km/h (0 Bft)
24.10.2013 13:54 16,5 C 15,0 C 77 % 1018,0 hPa 0,0 l/m 2 min 0 min 1,0 UV-I 418 W/m 2,6 km/h (1 Bft)
24.10.2013 13:56 16,5 C 15,0 C 77 % 1017,9 hPa 0,0 l/m 2 min 0 min 1,0 UV-I 411 W/m 7,7 km/h (2 Bft)
24.10.2013 13:58 16,5 C 15,0 C 76 % 1017,9 hPa 0,0 l/m 2 min 0 min 1,0 UV-I 413 W/m 7,7 km/h (2 Bft)
24.10.2013 14:00 16,6 C 15,0 C 77 % 1017,8 hPa 0,0 l/m 2 min 0 min 1,0 UV-I 399 W/m 0,0 km/h (0 Bft)
24.10.2013 14:02 16,6 C 15,0 C 77 % 1017,8 hPa 0,0 l/m 2 min 0 min 0,9 UV-I 381 W/m 10,3 km/h (2 Bft)
24.10.2013 14:06 16,8 C 15,0 C 76 % 1017,8 hPa 0,0 l/m 2 min 0 min 0,9 UV-I 404 W/m 7,7 km/h (2 Bft)
24.10.2013 14:08 16,7 C 15,0 C 76 % 1017,9 hPa 0,0 l/m 2 min 0 min 0,9 UV-I 403 W/m 7,7 km/h (2 Bft)
24.10.2013 14:10 16,6 C 15,0 C 75 % 1017,8 hPa 0,0 l/m 2 min 0 min 0,9 UV-I 399 W/m 5,1 km/h (1 Bft)
24.10.2013 14:12 16,6 C 15,0 C 77 % 1017,8 hPa 0,0 l/m 2 min 0 min 0,9 UV-I 387 W/m 0,0 km/h (0 Bft)
24.10.2013 14:14 16,6 C 15,0 C 76 % 1017,8 hPa 0,0 l/m 0 min 0 min 0,6 UV-I 123 W/m 0,0 km/h (0 Bft)
24.10.2013 14:16 16,5 C 15,0 C 76 % 1017,7 hPa 0,0 l/m 0 min 0 min 0,7 UV-I 128 W/m 0,0 km/h (0 Bft)
24.10.2013 14:18 16,4 C 14,4 C 77 % 1017,8 hPa 0,0 l/m 2 min 0 min 0,8 UV-I 374 W/m 0,0 km/h (0 Bft)
24.10.2013 14:20 16,4 C 14,4 C 77 % 1017,7 hPa 0,0 l/m 2 min 0 min 0,8 UV-I 374 W/m 0,0 km/h (0 Bft)
24.10.2013 14:22 16,4 C 14,4 C 77 % 1017,7 hPa 0,0 l/m 2 min 0 min 0,9 UV-I 399 W/m 0,0 km/h (0 Bft)
24.10.2013 14:24 16,4 C 14,4 C 77 % 1017,7 hPa 0,0 l/m 2 min 0 min 0,8 UV-I 362 W/m 0,0 km/h (0 Bft)
24.10.2013 14:26 16,4 C 14,4 C 76 % 1017,8 hPa 0,0 l/m 0 min 0 min 0,5 UV-I 69 W/m 2,6 km/h (1 Bft)
24.10.2013 14:28 16,3 C 14,4 C 76 % 1017,8 hPa 0,0 l/m 0 min 0 min 0,0 UV-I 67 W/m 0,0 km/h (0 Bft)
24.10.2013 14:30 16,1 C 13,9 C 76 % 1017,8 hPa 0,0 l/m 0 min 0 min 0,0 UV-I 63 W/m 2,6 km/h (1 Bft)
24.10.2013 14:32 16,0 C 13,9 C 76 % 1017,7 hPa 0,0 l/m 0 min 0 min 0,0 UV-I 72 W/m 0,0 km/h (0 Bft)
24.10.2013 14:34 15,8 C 13,9 C 77 % 1017,7 hPa 0,0 l/m 0 min 0 min 0,0 UV-I 88 W/m 0,0 km/h (0 Bft)
24.10.2013 14:36 15,7 C 13,9 C 78 % 1017,6 hPa 0,0 l/m 0 min 0 min 0,0 UV-I 83 W/m 0,0 km/h (0 Bft)
24.10.2013 14:38 15,7 C 13,9 C 79 % 1017,6 hPa 0,0 l/m 0 min 0 min 0,0 UV-I 69 W/m 0,0 km/h (0 Bft)
24.10.2013 14:40 15,6 C 13,9 C 80 % 1017,6 hPa 0,0 l/m 0 min 0 min 0,0 UV-I 63 W/m 0,0 km/h (0 Bft)
24.10.2013 14:42 15,6 C 13,3 C 79 % 1017,5 hPa 0,0 l/m 0 min 0 min 0,0 UV-I 77 W/m 0,0 km/h (0 Bft)
24.10.2013 14:44 15,6 C 13,3 C 79 % 1017,5 hPa 0,0 l/m 0 min 0 min 0,0 UV-I 90 W/m 0,0 km/h (0 Bft)
24.10.2013 14:46 15,6 C 13,3 C 78 % 1017,5 hPa 0,0 l/m 0 min 0 min 0,0 UV-I 84 W/m 0,0 km/h (0 Bft)
24.10.2013 14:48 15,5 C 13,3 C 80 % 1017,5 hPa 0,0 l/m 0 min 0 min 0,0 UV-I 79 W/m 0,0 km/h (0 Bft)
24.10.2013 14:50 15,5 C 13,3 C 80 % 1017,5 hPa 0,0 l/m 0 min 0 min 0,7 UV-I 77 W/m 0,0 km/h (0 Bft)
24.10.2013 14:52 15,6 C 13,3 C 80 % 1017,4 hPa 0,0 l/m 2 min 0 min 0,0 UV-I 388 W/m 0,0 km/h (0 Bft)
24.10.2013 14:54 15,7 C 13,3 C 79 % 1017,5 hPa 0,0 l/m 0 min 0 min 0,0 UV-I 84 W/m 0,0 km/h (0 Bft)
24.10.2013 14:56 15,7 C 13,3 C 79 % 1017,4 hPa 0,0 l/m 0 min 0 min 0,0 UV-I 123 W/m 0,0 km/h (0 Bft)
24.10.2013 14:58 15,7 C 13,3 C 80 % 1017,4 hPa 0,0 l/m 0 min 0 min 0,0 UV-I 72 W/m 0,0 km/h (0 Bft)
24.10.2013 15:00 15,6 C 13,3 C 79 % 1017,4 hPa 0,0 l/m 0 min 0 min 0,0 UV-I 83 W/m 0,0 km/h (0 Bft)
24.10.2013 15:02 15,6 C 13,3 C 81 % 1017,5 hPa 0,0 l/m 0 min 0 min 0,0 UV-I 77 W/m 0,0 km/h (0 Bft)
24.10.2013 15:06 15,4 C 12,8 C 80 % 1017,5 hPa 0,0 l/m 0 min 0 min 0,0 UV-I 74 W/m 0,0 km/h (0 Bft)
24.10.2013 15:08 15,4 C 12,8 C 80 % 1017,4 hPa 0,0 l/m 0 min 0 min 0,0 UV-I 186 W/m 0,0 km/h (0 Bft)
24.10.2013 15:10 15,6 C 12,8 C 79 % 1017,4 hPa 0,0 l/m 0 min 0 min 0,0 UV-I 149 W/m 0,0 km/h (0 Bft)
24.10.2013 15:12 15,8 C 13,3 C 79 % 1017,4 hPa 0,0 l/m 2 min 0 min 0,5 UV-I 366 W/m 0,0 km/h (0 Bft)
24.10.2013 15:14 15,9 C 13,9 C 77 % 1017,4 hPa 0,0 l/m 2 min 0 min 0,6 UV-I 364 W/m 0,0 km/h (0 Bft)
24.10.2013 15:16 16,3 C 13,9 C 78 % 1017,4 hPa 0,0 l/m 2 min 0 min 0,5 UV-I 357 W/m 0,0 km/h (0 Bft)
24.10.2013 15:18 16,4 C 13,9 C 78 % 1017,4 hPa 0,0 l/m 2 min 0 min 0,5 UV-I 355 W/m 2,6 km/h (1 Bft)
24.10.2013 15:20 16,6 C 13,9 C 77 % 1017,4 hPa 0,0 l/m 2 min 0 min 0,5 UV-I 362 W/m 0,0 km/h (0 Bft)
24.10.2013 15:22 16,6 C 13,9 C 77 % 1017,3 hPa 0,0 l/m 2 min 0 min 0,5 UV-I 346 W/m 5,1 km/h (1 Bft)
24.10.2013 15:24 16,7 C 14,4 C 76 % 1017,2 hPa 0,0 l/m 2 min 0 min 0,5 UV-I 352 W/m 0,0 km/h (0 Bft)
24.10.2013 15:26 16,8 C 14,4 C 74 % 1017,2 hPa 0,0 l/m 2 min 0 min 0,5 UV-I 352 W/m 5,1 km/h (1 Bft)
24.10.2013 15:28 16,8 C 14,4 C 74 % 1017,3 hPa 0,0 l/m 2 min 0 min 0,5 UV-I 343 W/m 0,0 km/h (0 Bft)
24.10.2013 15:30 17,0 C 14,4 C 75 % 1017,3 hPa 0,0 l/m 2 min 0 min 0,5 UV-I 345 W/m 5,1 km/h (1 Bft)
24.10.2013 15:32 17,1 C 15,0 C 74 % 1017,3 hPa 0,0 l/m 2 min 0 min 0,5 UV-I 346 W/m 2,6 km/h (1 Bft)
24.10.2013 15:34 17,2 C 15,0 C 75 % 1017,3 hPa 0,0 l/m 2 min 0 min 0,5 UV-I 336 W/m 0,0 km/h (0 Bft)
24.10.2013 15:36 17,3 C 15,0 C 75 % 1017,3 hPa 0,0 l/m 2 min 0 min 0,5 UV-I 329 W/m 5,1 km/h (1 Bft)
24.10.2013 15:38 17,3 C 15,0 C 72 % 1017,3 hPa 0,0 l/m 2 min 0 min 0,5 UV-I 316 W/m 0,0 km/h (0 Bft)
24.10.2013 15:40 17,3 C 15,0 C 71 % 1017,2 hPa 0,0 l/m 2 min 0 min 0,0 UV-I 308 W/m 0,0 km/h (0 Bft)
24.10.2013 15:42 17,2 C 15,0 C 73 % 1017,3 hPa 0,0 l/m 2 min 0 min 0,0 UV-I 302 W/m 0,0 km/h (0 Bft)
24.10.2013 15:44 17,4 C 14,4 C 71 % 1017,3 hPa 0,0 l/m 2 min 0 min 0,0 UV-I 306 W/m 0,0 km/h (0 Bft)
24.10.2013 15:46 17,3 C 14,4 C 73 % 1017,3 hPa 0,0 l/m 0 min 0 min 0,0 UV-I 70 W/m 2,6 km/h (1 Bft)
24.10.2013 15:48 17,2 C 14,4 C 71 % 1017,3 hPa 0,0 l/m 0 min 0 min 0,0 UV-I 93 W/m 0,0 km/h (0 Bft)
24.10.2013 15:50 17,0 C 14,4 C 74 % 1017,3 hPa 0,0 l/m 0 min 0 min 0,0 UV-I 93 W/m 0,0 km/h (0 Bft)
24.10.2013 15:52 16,9 C 14,4 C 72 % 1017,3 hPa 0,0 l/m 2 min 0 min 0,0 UV-I 295 W/m 0,0 km/h (0 Bft)
24.10.2013 15:54 17,0 C 14,4 C 72 % 1017,3 hPa 0,0 l/m 2 min 0 min 0,0 UV-I 302 W/m 2,6 km/h (1 Bft)
24.10.2013 15:56 17,1 C 14,4 C 72 % 1017,3 hPa 0,0 l/m 2 min 0 min 0,0 UV-I 309 W/m 0,0 km/h (0 Bft)
24.10.2013 15:58 17,1 C 14,4 C 72 % 1017,4 hPa 0,0 l/m 2 min 0 min 0,0 UV-I 313 W/m 2,6 km/h (1 Bft)
24.10.2013 16:00 17,1 C 14,4 C 71 % 1017,4 hPa 0,0 l/m 2 min 0 min 0,0 UV-I 302 W/m 0,0 km/h (0 Bft)
24.10.2013 16:02 17,1 C 15,0 C 71 % 1017,4 hPa 0,0 l/m 2 min 0 min 0,0 UV-I 299 W/m 0,0 km/h (0 Bft)
24.10.2013 16:06 17,1 C 15,0 C 73 % 1017,5 hPa 0,0 l/m 2 min 0 min 0,0 UV-I 267 W/m 2,6 km/h (1 Bft)
24.10.2013 16:08 17,1 C 15,0 C 72 % 1017,5 hPa 0,0 l/m 2 min 0 min 0,0 UV-I 271 W/m 0,0 km/h (0 Bft)
24.10.2013 16:10 17,1 C 14,4 C 74 % 1017,5 hPa 0,0 l/m 2 min 0 min 0,0 UV-I 262 W/m 2,6 km/h (1 Bft)
24.10.2013 16:12 17,1 C 14,4 C 73 % 1017,4 hPa 0,0 l/m 2 min 0 min 0,0 UV-I 269 W/m 5,1 km/h (1 Bft)
24.10.2013 16:14 17,1 C 14,4 C 74 % 1017,5 hPa 0,0 l/m 2 min 0 min 0,0 UV-I 271 W/m 7,7 km/h (2 Bft)
24.10.2013 16:16 17,2 C 14,4 C 73 % 1017,5 hPa 0,0 l/m 2 min 0 min 0,0 UV-I 258 W/m 0,0 km/h (0 Bft)
24.10.2013 16:18 17,3 C 15,0 C 72 % 1017,6 hPa 0,0 l/m 2 min 0 min 0,0 UV-I 271 W/m 10,3 km/h (2 Bft)
24.10.2013 16:20 17,3 C 15,0 C 72 % 1017,6 hPa 0,0 l/m 2 min 0 min 0,0 UV-I 274 W/m 7,7 km/h (2 Bft)
24.10.2013 16:22 17,2 C 15,0 C 72 % 1017,6 hPa 0,0 l/m 2 min 0 min 0,0 UV-I 255 W/m 7,7 km/h (2 Bft)
24.10.2013 16:24 17,2 C 15,0 C 73 % 1017,6 hPa 0,0 l/m 2 min 0 min 0,0 UV-I 236 W/m 0,0 km/h (0 Bft)
24.10.2013 16:26 17,1 C 15,0 C 73 % 1017,6 hPa 0,0 l/m 2 min 0 min 0,0 UV-I 200 W/m 5,1 km/h (1 Bft)
24.10.2013 16:28 17,0 C 15,0 C 74 % 1017,6 hPa 0,0 l/m 2 min 0 min 0,0 UV-I 218 W/m 0,0 km/h (0 Bft)
24.10.2013 16:30 16,9 C 14,4 C 75 % 1017,6 hPa 0,0 l/m 2 min 0 min 0,0 UV-I 209 W/m 0,0 km/h (0 Bft)
24.10.2013 16:32 16,8 C 14,4 C 74 % 1017,7 hPa 0,0 l/m 2 min 0 min 0,0 UV-I 202 W/m 0,0 km/h (0 Bft)
24.10.2013 16:34 16,8 C 14,4 C 74 % 1017,7 hPa 0,0 l/m 2 min 0 min 0,0 UV-I 199 W/m 2,6 km/h (1 Bft)
24.10.2013 16:36 16,8 C 14,4 C 73 % 1017,6 hPa 0,0 l/m 2 min 0 min 0,0 UV-I 179 W/m 7,7 km/h (2 Bft)
24.10.2013 16:38 16,8 C 14,4 C 73 % 1017,6 hPa 0,0 l/m 2 min 0 min 0,0 UV-I 149 W/m 7,7 km/h (2 Bft)
24.10.2013 16:40 16,7 C 14,4 C 73 % 1017,6 hPa 0,0 l/m 2 min 0 min 0,0 UV-I 155 W/m 0,0 km/h (0 Bft)
24.10.2013 16:42 16,7 C 13,9 C 73 % 1017,6 hPa 0,0 l/m 2 min 0 min 0,0 UV-I 146 W/m 0,0 km/h (0 Bft)
24.10.2013 16:44 16,7 C 13,9 C 74 % 1017,6 hPa 0,0 l/m 0 min 0 min 0,0 UV-I 90 W/m 0,0 km/h (0 Bft)
24.10.2013 16:46 16,4 C 13,9 C 75 % 1017,5 hPa 0,0 l/m 0 min 0 min 0,0 UV-I 100 W/m 0,0 km/h (0 Bft)
24.10.2013 16:48 16,3 C 13,9 C 75 % 1017,5 hPa 0,0 l/m 0 min 0 min 0,0 UV-I 102 W/m 2,6 km/h (1 Bft)
24.10.2013 16:50 16,2 C 13,3 C 75 % 1017,5 hPa 0,0 l/m 0 min 0 min 0,0 UV-I 91 W/m 0,0 km/h (0 Bft)
24.10.2013 16:52 16,1 C 13,3 C 76 % 1017,5 hPa 0,0 l/m 0 min 0 min 0,0 UV-I 91 W/m 0,0 km/h (0 Bft)
24.10.2013 16:54 16,0 C 13,3 C 76 % 1017,5 hPa 0,0 l/m 0 min 0 min 0,0 UV-I 90 W/m 0,0 km/h (0 Bft)
24.10.2013 16:56 16,0 C 13,3 C 75 % 1017,5 hPa 0,0 l/m 2 min 0 min 0,0 UV-I 121 W/m 0,0 km/h (0 Bft)
24.10.2013 16:58 15,9 C 13,3 C 76 % 1017,5 hPa 0,0 l/m 2 min 0 min 0,0 UV-I 118 W/m 0,0 km/h (0 Bft)
24.10.2013 17:00 15,8 C 13,3 C 77 % 1017,5 hPa 0,0 l/m 2 min 0 min 0,0 UV-I 114 W/m 0,0 km/h (0 Bft)
24.10.2013 17:02 15,8 C 12,8 C 76 % 1017,5 hPa 0,0 l/m 2 min 0 min 0,0 UV-I 107 W/m 0,0 km/h (0 Bft)
24.10.2013 17:06 15,8 C 12,8 C 76 % 1017,5 hPa 0,0 l/m 2 min 0 min 0,0 UV-I 109 W/m 0,0 km/h (0 Bft)
24.10.2013 17:08 15,8 C 12,8 C 77 % 1017,5 hPa 0,0 l/m 2 min 0 min 0,0 UV-I 107 W/m 0,0 km/h (0 Bft)
24.10.2013 17:10 15,7 C 12,8 C 77 % 1017,4 hPa 0,0 l/m 2 min 0 min 0,0 UV-I 93 W/m 0,0 km/h (0 Bft)
24.10.2013 17:12 15,7 C 12,8 C 78 % 1017,4 hPa 0,0 l/m 2 min 0 min 0,0 UV-I 97 W/m 0,0 km/h (0 Bft)
24.10.2013 17:14 15,6 C 12,8 C 78 % 1017,4 hPa 0,0 l/m 0 min 0 min 0,0 UV-I 56 W/m 0,0 km/h (0 Bft)
24.10.2013 17:16 15,6 C 12,8 C 78 % 1017,5 hPa 0,0 l/m 0 min 0 min 0,0 UV-I 42 W/m 0,0 km/h (0 Bft)
24.10.2013 17:18 15,6 C 12,8 C 77 % 1017,5 hPa 0,0 l/m 0 min 0 min 0,0 UV-I 40 W/m 0,0 km/h (0 Bft)
24.10.2013 17:20 15,7 C 12,8 C 77 % 1017,5 hPa 0,0 l/m 0 min 0 min 0,0 UV-I 40 W/m 0,0 km/h (0 Bft)
24.10.2013 17:22 15,7 C 12,8 C 77 % 1017,4 hPa 0,0 l/m 0 min 0 min 0,0 UV-I 40 W/m 0,0 km/h (0 Bft)
24.10.2013 17:24 15,7 C 12,8 C 77 % 1017,5 hPa 0,0 l/m 0 min 0 min 0,0 UV-I 39 W/m 0,0 km/h (0 Bft)
24.10.2013 17:26 15,7 C 12,2 C 78 % 1017,6 hPa 0,0 l/m 0 min 0 min 0,0 UV-I 33 W/m 0,0 km/h (0 Bft)
24.10.2013 17:28 15,6 C 12,2 C 79 % 1017,5 hPa 0,0 l/m 0 min 0 min 0,0 UV-I 33 W/m 0,0 km/h (0 Bft)
24.10.2013 17:30 15,5 C 12,2 C 80 % 1017,4 hPa 0,0 l/m 0 min 0 min 0,0 UV-I 32 W/m 0,0 km/h (0 Bft)
24.10.2013 17:32 15,4 C 12,2 C 81 % 1017,5 hPa 0,0 l/m 0 min 0 min 0,0 UV-I 32 W/m 0,0 km/h (0 Bft)
24.10.2013 17:34 15,3 C 12,2 C 81 % 1017,5 hPa 0,0 l/m 0 min 0 min 0,0 UV-I 32 W/m 0,0 km/h (0 Bft)
24.10.2013 17:36 15,3 C 12,2 C 81 % 1017,6 hPa 0,0 l/m 0 min 0 min 0,0 UV-I 30 W/m 0,0 km/h (0 Bft)
24.10.2013 17:38 15,3 C 12,2 C 81 % 1017,6 hPa 0,0 l/m 0 min 0 min 0,0 UV-I 28 W/m 0,0 km/h (0 Bft)
24.10.2013 17:40 15,1 C 12,2 C 82 % 1017,5 hPa 0,0 l/m 0 min 0 min 0,0 UV-I 25 W/m 0,0 km/h (0 Bft)
24.10.2013 17:42 14,9 C 12,2 C 83 % 1017,5 hPa 0,0 l/m 0 min 0 min 0,0 UV-I 23 W/m 0,0 km/h (0 Bft)
24.10.2013 17:44 14,9 C 11,7 C 83 % 1017,5 hPa 0,0 l/m 0 min 0 min 0,0 UV-I 21 W/m 0,0 km/h (0 Bft)
24.10.2013 17:46 14,8 C 11,7 C 84 % 1017,5 hPa 0,0 l/m 0 min 0 min 0,0 UV-I 23 W/m 0,0 km/h (0 Bft)
24.10.2013 17:48 14,7 C 11,7 C 84 % 1017,4 hPa 0,0 l/m 0 min 0 min 0,0 UV-I 23 W/m 0,0 km/h (0 Bft)
24.10.2013 17:50 14,6 C 11,7 C 84 % 1017,5 hPa 0,0 l/m 0 min 0 min 0,0 UV-I 23 W/m 0,0 km/h (0 Bft)
24.10.2013 17:52 14,4 C 11,7 C 85 % 1017,5 hPa 0,0 l/m 0 min 0 min 0,0 UV-I 23 W/m 0,0 km/h (0 Bft)
24.10.2013 17:54 14,3 C 11,7 C 85 % 1017,5 hPa 0,0 l/m 0 min 0 min 0,0 UV-I 23 W/m 0,0 km/h (0 Bft)
24.10.2013 17:56 14,2 C 11,7 C 85 % 1017,5 hPa 0,0 l/m 0 min 0 min 0,0 UV-I 23 W/m 0,0 km/h (0 Bft)
24.10.2013 17:58 14,2 C 11,7 C 86 % 1017,5 hPa 0,0 l/m 0 min 0 min 0,0 UV-I 23 W/m 0,0 km/h (0 Bft)
24.10.2013 18:00 14,2 C 11,7 C 86 % 1017,4 hPa 0,0 l/m 0 min 0 min 0,0 UV-I 21 W/m 0,0 km/h (0 Bft)
24.10.2013 18:02 14,2 C 11,7 C 86 % 1017,4 hPa 0,0 l/m 0 min 0 min 0,0 UV-I 21 W/m 0,0 km/h (0 Bft)
24.10.2013 18:06 14,1 C 11,1 C 86 % 1017,5 hPa 0,0 l/m 0 min 0 min 0,0 UV-I 16 W/m 0,0 km/h (0 Bft)
24.10.2013 18:08 14,0 C 11,1 C 86 % 1017,5 hPa 0,0 l/m 0 min 0 min 0,0 UV-I 16 W/m 0,0 km/h (0 Bft)
24.10.2013 18:10 13,9 C 11,1 C 87 % 1017,5 hPa 0,0 l/m 0 min 0 min 0,0 UV-I 12 W/m 0,0 km/h (0 Bft)
24.10.2013 18:12 13,8 C 11,1 C 88 % 1017,5 hPa 0,0 l/m 0 min 0 min 0,0 UV-I 11 W/m 0,0 km/h (0 Bft)
24.10.2013 18:14 13,7 C 11,1 C 88 % 1017,5 hPa 0,0 l/m 0 min 0 min 0,0 UV-I 11 W/m 0,0 km/h (0 Bft)
24.10.2013 18:16 13,6 C 11,1 C 88 % 1017,5 hPa 0,0 l/m 0 min 0 min 0,0 UV-I 9 W/m 0,0 km/h (0 Bft)
24.10.2013 18:18 13,5 C 11,1 C 88 % 1017,5 hPa 0,0 l/m 0 min 0 min 0,0 UV-I 7 W/m 0,0 km/h (0 Bft)
24.10.2013 18:20 13,4 C 11,1 C 88 % 1017,5 hPa 0,0 l/m 0 min 0 min 0,0 UV-I 5 W/m 0,0 km/h (0 Bft)
24.10.2013 18:22 13,3 C 10,6 C 89 % 1017,5 hPa 0,0 l/m 0 min 0 min 0,0 UV-I 5 W/m 0,0 km/h (0 Bft)
24.10.2013 18:24 13,2 C 10,6 C 89 % 1017,5 hPa 0,0 l/m 0 min 0 min 0,0 UV-I 0 W/m 0,0 km/h (0 Bft)
24.10.2013 18:26 13,1 C 10,6 C 89 % 1017,4 hPa 0,0 l/m 0 min 0 min 0,0 UV-I 0 W/m 0,0 km/h (0 Bft)
24.10.2013 18:28 13,1 C 10,6 C 90 % 1017,5 hPa 0,0 l/m 0 min 0 min 0,0 UV-I 0 W/m 0,0 km/h (0 Bft)
24.10.2013 18:30 13,0 C 10,6 C 90 % 1017,5 hPa 0,0 l/m 0 min 0 min 0,0 UV-I 0 W/m 0,0 km/h (0 Bft)
24.10.2013 18:32 12,9 C 10,6 C 90 % 1017,4 hPa 0,0 l/m 0 min 0 min 0,0 UV-I 0 W/m 0,0 km/h (0 Bft)
24.10.2013 18:34 12,8 C 10,6 C 90 % 1017,4 hPa 0,0 l/m 0 min 0 min 0,0 UV-I 0 W/m 0,0 km/h (0 Bft)
24.10.2013 18:36 12,7 C 10,6 C 91 % 1017,4 hPa 0,0 l/m 0 min 0 min 0,0 UV-I 0 W/m 0,0 km/h (0 Bft)
24.10.2013 18:38 12,7 C 10,6 C 91 % 1017,4 hPa 0,0 l/m 0 min 0 min 0,0 UV-I 0 W/m 0,0 km/h (0 Bft)
24.10.2013 18:40 12,7 C 10,6 C 91 % 1017,5 hPa 0,0 l/m 0 min 0 min 0,0 UV-I 0 W/m 0,0 km/h (0 Bft)
24.10.2013 18:42 12,6 C 10,6 C 91 % 1017,5 hPa 0,0 l/m 0 min 0 min 0,0 UV-I 0 W/m 0,0 km/h (0 Bft)
24.10.2013 18:44 12,6 C 10,0 C 91 % 1017,5 hPa 0,0 l/m 0 min 0 min 0,0 UV-I 0 W/m 0,0 km/h (0 Bft)
24.10.2013 18:46 12,5 C 10,0 C 92 % 1017,5 hPa 0,0 l/m 0 min 0 min 0,0 UV-I 0 W/m 0,0 km/h (0 Bft)
24.10.2013 18:48 12,4 C 10,0 C 92 % 1017,6 hPa 0,0 l/m 0 min 0 min 0,0 UV-I 0 W/m 0,0 km/h (0 Bft)
24.10.2013 18:50 12,3 C 10,0 C 92 % 1017,6 hPa 0,0 l/m 0 min 0 min 0,0 UV-I 0 W/m 0,0 km/h (0 Bft)
24.10.2013 18:52 12,3 C 10,0 C 92 % 1017,7 hPa 0,0 l/m 0 min 0 min 0,0 UV-I 0 W/m 0,0 km/h (0 Bft)
24.10.2013 18:54 12,3 C 10,0 C 92 % 1017,7 hPa 0,0 l/m 0 min 0 min 0,0 UV-I 0 W/m 0,0 km/h (0 Bft)
24.10.2013 18:56 12,2 C 10,0 C 93 % 1017,6 hPa 0,0 l/m 0 min 0 min 0,0 UV-I 0 W/m 0,0 km/h (0 Bft)
24.10.2013 18:58 12,2 C 10,0 C 92 % 1017,7 hPa 0,0 l/m 0 min 0 min 0,0 UV-I 0 W/m 0,0 km/h (0 Bft)
24.10.2013 19:00 12,1 C 10,0 C 92 % 1017,8 hPa 0,0 l/m 0 min 0 min 0,0 UV-I 0 W/m 0,0 km/h (0 Bft)
24.10.2013 19:02 12,1 C 10,0 C 93 % 1017,9 hPa 0,0 l/m 0 min 0 min 0,0 UV-I 0 W/m 0,0 km/h (0 Bft)
24.10.2013 19:06 12,1 C 9,4 C 93 % 1017,9 hPa 0,0 l/m 0 min 0 min 0,0 UV-I 0 W/m 0,0 km/h (0 Bft)
24.10.2013 19:08 12,1 C 9,4 C 93 % 1017,9 hPa 0,0 l/m 0 min 0 min 0,0 UV-I 0 W/m 0,0 km/h (0 Bft)
24.10.2013 19:10 11,9 C 9,4 C 93 % 1017,8 hPa 0,0 l/m 0 min 0 min 0,0 UV-I 0 W/m 0,0 km/h (0 Bft)
24.10.2013 19:12 11,9 C 9,4 C 93 % 1017,8 hPa 0,0 l/m 0 min 0 min 0,0 UV-I 0 W/m 0,0 km/h (0 Bft)
24.10.2013 19:14 11,8 C 9,4 C 93 % 1017,9 hPa 0,0 l/m 0 min 0 min 0,0 UV-I 0 W/m 0,0 km/h (0 Bft)
24.10.2013 19:16 11,7 C 9,4 C 93 % 1017,9 hPa 0,0 l/m 0 min 0 min 0,0 UV-I 0 W/m 0,0 km/h (0 Bft)
24.10.2013 19:18 11,7 C 9,4 C 93 % 1017,8 hPa 0,0 l/m 0 min 0 min 0,0 UV-I 0 W/m 0,0 km/h (0 Bft)
24.10.2013 19:20 11,6 C 9,4 C 93 % 1017,7 hPa 0,0 l/m 0 min 0 min 0,0 UV-I 0 W/m 0,0 km/h (0 Bft)
24.10.2013 19:22 11,5 C 9,4 C 93 % 1017,6 hPa 0,0 l/m 0 min 0 min 0,0 UV-I 0 W/m 0,0 km/h (0 Bft)
24.10.2013 19:24 11,4 C 9,4 C 94 % 1017,5 hPa 0,0 l/m 0 min 0 min 0,0 UV-I 0 W/m 0,0 km/h (0 Bft)
24.10.2013 19:26 11,4 C 9,4 C 94 % 1017,5 hPa 0,0 l/m 0 min 0 min 0,0 UV-I 0 W/m 0,0 km/h (0 Bft)
24.10.2013 19:28 11,3 C 9,4 C 94 % 1017,6 hPa 0,0 l/m 0 min 0 min 0,0 UV-I 0 W/m 0,0 km/h (0 Bft)
24.10.2013 19:30 11,3 C 9,4 C 94 % 1017,5 hPa 0,0 l/m 0 min 0 min 0,0 UV-I 0 W/m 0,0 km/h (0 Bft)
24.10.2013 19:32 11,3 C 9,4 C 94 % 1017,5 hPa 0,0 l/m 0 min 0 min 0,0 UV-I 0 W/m 0,0 km/h (0 Bft)
24.10.2013 19:34 11,2 C 9,4 C 94 % 1017,5 hPa 0,0 l/m 0 min 0 min 0,0 UV-I 0 W/m 0,0 km/h (0 Bft)
24.10.2013 19:36 11,2 C 9,4 C 94 % 1017,5 hPa 0,0 l/m 0 min 0 min 0,0 UV-I 0 W/m 0,0 km/h (0 Bft)
24.10.2013 19:38 11,2 C 9,4 C 95 % 1017,4 hPa 0,0 l/m 0 min 0 min 0,0 UV-I 0 W/m 0,0 km/h (0 Bft)
24.10.2013 19:40 11,2 C 9,4 C 95 % 1017,5 hPa 0,0 l/m 0 min 0 min 0,0 UV-I 0 W/m 0,0 km/h (0 Bft)
24.10.2013 19:42 11,2 C 9,4 C 95 % 1017,4 hPa 0,0 l/m 0 min 0 min 0,0 UV-I 0 W/m 0,0 km/h (0 Bft)
24.10.2013 19:44 11,2 C 9,4 C 95 % 1017,5 hPa 0,0 l/m 0 min 0 min 0,0 UV-I 0 W/m 0,0 km/h (0 Bft)
24.10.2013 19:46 11,2 C 8,9 C 95 % 1017,5 hPa 0,0 l/m 0 min 0 min 0,0 UV-I 0 W/m 0,0 km/h (0 Bft)
24.10.2013 19:48 11,2 C 8,9 C 95 % 1017,5 hPa 0,0 l/m 0 min 0 min 0,0 UV-I 0 W/m 0,0 km/h (0 Bft)
24.10.2013 19:50 11,2 C 8,9 C 95 % 1017,4 hPa 0,0 l/m 0 min 0 min 0,0 UV-I 0 W/m 0,0 km/h (0 Bft)
24.10.2013 19:52 11,1 C 8,9 C 95 % 1017,4 hPa 0,0 l/m 0 min 0 min 0,0 UV-I 0 W/m 0,0 km/h (0 Bft)
24.10.2013 19:54 11,1 C 8,9 C 95 % 1017,4 hPa 0,0 l/m 0 min 0 min 0,0 UV-I 0 W/m 0,0 km/h (0 Bft)
24.10.2013 19:56 11,0 C 8,9 C 95 % 1017,3 hPa 0,0 l/m 0 min 0 min 0,0 UV-I 0 W/m 0,0 km/h (0 Bft)
24.10.2013 19:58 11,0 C 8,9 C 95 % 1017,4 hPa 0,0 l/m 0 min 0 min 0,0 UV-I 0 W/m 0,0 km/h (0 Bft)
24.10.2013 20:00 10,9 C 8,9 C 95 % 1017,4 hPa 0,0 l/m 0 min 0 min 0,0 UV-I 0 W/m 0,0 km/h (0 Bft)
24.10.2013 20:02 10,8 C 8,9 C 95 % 1017,3 hPa 0,0 l/m 0 min 0 min 0,0 UV-I 0 W/m 0,0 km/h (0 Bft)
24.10.2013 20:06 10,8 C 8,9 C 95 % 1017,3 hPa 0,0 l/m 0 min 0 min 0,0 UV-I 0 W/m 0,0 km/h (0 Bft)
24.10.2013 20:08 10,8 C 8,9 C 95 % 1017,3 hPa 0,0 l/m 0 min 0 min 0,0 UV-I 0 W/m 0,0 km/h (0 Bft)
24.10.2013 20:10 10,8 C 8,9 C 95 % 1017,2 hPa 0,0 l/m 0 min 0 min 0,0 UV-I 0 W/m 0,0 km/h (0 Bft)
24.10.2013 20:12 10,7 C 8,9 C 95 % 1017,3 hPa 0,0 l/m 0 min 0 min 0,0 UV-I 0 W/m 0,0 km/h (0 Bft)
24.10.2013 20:14 10,7 C 8,9 C 95 % 1017,3 hPa 0,0 l/m 0 min 0 min 0,0 UV-I 0 W/m 0,0 km/h (0 Bft)
24.10.2013 20:16 10,7 C 8,9 C 95 % 1017,2 hPa 0,0 l/m 0 min 0 min 0,0 UV-I 0 W/m 0,0 km/h (0 Bft)
24.10.2013 20:18 10,7 C 8,9 C 96 % 1017,2 hPa 0,0 l/m 0 min 0 min 0,0 UV-I 0 W/m 0,0 km/h (0 Bft)
24.10.2013 20:20 10,7 C 8,9 C 96 % 1017,2 hPa 0,0 l/m 0 min 0 min 0,0 UV-I 0 W/m 0,0 km/h (0 Bft)
24.10.2013 20:22 10,7 C 8,9 C 96 % 1017,3 hPa 0,0 l/m 0 min 0 min 0,0 UV-I 0 W/m 0,0 km/h (0 Bft)
24.10.2013 20:24 10,7 C 8,9 C 96 % 1017,3 hPa 0,0 l/m 0 min 0 min 0,0 UV-I 0 W/m 0,0 km/h (0 Bft)
24.10.2013 20:26 10,7 C 8,9 C 96 % 1017,3 hPa 0,0 l/m 0 min 0 min 0,0 UV-I 0 W/m 0,0 km/h (0 Bft)
24.10.2013 20:28 10,7 C 8,9 C 96 % 1017,2 hPa 0,0 l/m 0 min 0 min 0,0 UV-I 0 W/m 0,0 km/h (0 Bft)
24.10.2013 20:30 10,7 C 8,9 C 96 % 1017,2 hPa 0,0 l/m 0 min 0 min 0,0 UV-I 0 W/m 0,0 km/h (0 Bft)
24.10.2013 20:32 10,7 C 8,9 C 96 % 1017,2 hPa 0,0 l/m 0 min 0 min 0,0 UV-I 0 W/m 0,0 km/h (0 Bft)
24.10.2013 20:34 10,7 C 8,9 C 96 % 1017,2 hPa 0,0 l/m 0 min 0 min 0,0 UV-I 0 W/m 0,0 km/h (0 Bft)
24.10.2013 20:36 10,7 C 8,3 C 96 % 1017,3 hPa 0,0 l/m 0 min 0 min 0,0 UV-I 0 W/m 0,0 km/h (0 Bft)
24.10.2013 20:38 10,7 C 8,3 C 96 % 1017,3 hPa 0,0 l/m 0 min 0 min 0,0 UV-I 0 W/m 0,0 km/h (0 Bft)
24.10.2013 20:40 10,7 C 8,3 C 96 % 1017,3 hPa 0,0 l/m 0 min 0 min 0,0 UV-I 0 W/m 0,0 km/h (0 Bft)
24.10.2013 20:42 10,7 C 8,3 C 96 % 1017,4 hPa 0,0 l/m 0 min 0 min 0,0 UV-I 0 W/m 0,0 km/h (0 Bft)
24.10.2013 20:44 10,7 C 8,3 C 96 % 1017,4 hPa 0,0 l/m 0 min 0 min 0,0 UV-I 0 W/m 0,0 km/h (0 Bft)
24.10.2013 20:46 10,7 C 8,3 C 96 % 1017,3 hPa 0,0 l/m 0 min 0 min 0,0 UV-I 0 W/m 0,0 km/h (0 Bft)
24.10.2013 20:48 10,6 C 8,3 C 96 % 1017,3 hPa 0,0 l/m 0 min 0 min 0,0 UV-I 0 W/m 0,0 km/h (0 Bft)
24.10.2013 20:50 10,6 C 8,3 C 96 % 1017,3 hPa 0,0 l/m 0 min 0 min 0,0 UV-I 0 W/m 0,0 km/h (0 Bft)
24.10.2013 20:52 10,5 C 8,3 C 96 % 1017,3 hPa 0,0 l/m 0 min 0 min 0,0 UV-I 0 W/m 0,0 km/h (0 Bft)
24.10.2013 20:54 10,5 C 8,3 C 96 % 1017,3 hPa 0,0 l/m 0 min 0 min 0,0 UV-I 0 W/m 0,0 km/h (0 Bft)
24.10.2013 20:56 10,5 C 8,3 C 96 % 1017,3 hPa 0,0 l/m 0 min 0 min 0,0 UV-I 0 W/m 0,0 km/h (0 Bft)
24.10.2013 20:58 10,4 C 8,3 C 96 % 1017,4 hPa 0,0 l/m 0 min 0 min 0,0 UV-I 0 W/m 0,0 km/h (0 Bft)
24.10.2013 21:00 10,3 C 8,3 C 96 % 1017,4 hPa 0,0 l/m 0 min 0 min 0,0 UV-I 0 W/m 0,0 km/h (0 Bft)
24.10.2013 21:02 10,3 C 8,3 C 96 % 1017,4 hPa 0,0 l/m 0 min 0 min 0,0 UV-I 0 W/m 0,0 km/h (0 Bft)
24.10.2013 21:06 10,2 C 8,3 C 96 % 1017,4 hPa 0,0 l/m 0 min 0 min 0,0 UV-I 0 W/m 0,0 km/h (0 Bft)
24.10.2013 21:08 10,2 C 8,3 C 96 % 1017,4 hPa 0,0 l/m 0 min 0 min 0,0 UV-I 0 W/m 0,0 km/h (0 Bft)
24.10.2013 21:10 10,2 C 8,3 C 96 % 1017,4 hPa 0,0 l/m 0 min 0 min 0,0 UV-I 0 W/m 0,0 km/h (0 Bft)
24.10.2013 21:12 10,2 C 8,3 C 96 % 1017,4 hPa 0,0 l/m 0 min 0 min 0,0 UV-I 0 W/m 0,0 km/h (0 Bft)
24.10.2013 21:14 10,2 C 8,3 C 96 % 1017,4 hPa 0,0 l/m 0 min 0 min 0,0 UV-I 0 W/m 0,0 km/h (0 Bft)
24.10.2013 21:16 10,2 C 8,3 C 96 % 1017,4 hPa 0,0 l/m 0 min 0 min 0,0 UV-I 0 W/m 0,0 km/h (0 Bft)
24.10.2013 21:18 10,2 C 8,3 C 96 % 1017,3 hPa 0,0 l/m 0 min 0 min 0,0 UV-I 0 W/m 0,0 km/h (0 Bft)
24.10.2013 21:20 10,1 C 8,3 C 96 % 1017,3 hPa 0,0 l/m 0 min 0 min 0,0 UV-I 0 W/m 0,0 km/h (0 Bft)
24.10.2013 21:22 10,1 C 8,3 C 96 % 1017,2 hPa 0,0 l/m 0 min 0 min 0,0 UV-I 0 W/m 0,0 km/h (0 Bft)
24.10.2013 21:24 10,1 C 8,3 C 96 % 1017,3 hPa 0,0 l/m 0 min 0 min 0,0 UV-I 0 W/m 0,0 km/h (0 Bft)
24.10.2013 21:26 10,1 C 8,3 C 96 % 1017,3 hPa 0,0 l/m 0 min 0 min 0,0 UV-I 0 W/m 0,0 km/h (0 Bft)
24.10.2013 21:28 10,0 C 7,8 C 96 % 1017,3 hPa 0,0 l/m 0 min 0 min 0,0 UV-I 0 W/m 0,0 km/h (0 Bft)
24.10.2013 21:30 9,9 C 7,8 C 96 % 1017,2 hPa 0,0 l/m 0 min 0 min 0,0 UV-I 0 W/m 0,0 km/h (0 Bft)
24.10.2013 21:32 9,8 C 7,8 C 96 % 1017,2 hPa 0,0 l/m 0 min 0 min 0,0 UV-I 0 W/m 0,0 km/h (0 Bft)
24.10.2013 21:34 9,9 C 7,8 C 96 % 1017,2 hPa 0,0 l/m 0 min 0 min 0,0 UV-I 0 W/m 0,0 km/h (0 Bft)
24.10.2013 21:36 9,8 C 7,8 C 96 % 1017,1 hPa 0,0 l/m 0 min 0 min 0,0 UV-I 0 W/m 0,0 km/h (0 Bft)
24.10.2013 21:38 9,8 C 7,8 C 96 % 1017,1 hPa 0,0 l/m 0 min 0 min 0,0 UV-I 0 W/m 0,0 km/h (0 Bft)
24.10.2013 21:40 9,8 C 7,8 C 96 % 1017,1 hPa 0,0 l/m 0 min 0 min 0,0 UV-I 0 W/m 0,0 km/h (0 Bft)
24.10.2013 21:42 9,7 C 7,8 C 96 % 1017,1 hPa 0,0 l/m 0 min 0 min 0,0 UV-I 0 W/m 0,0 km/h (0 Bft)
24.10.2013 21:44 9,7 C 7,8 C 96 % 1017,1 hPa 0,0 l/m 0 min 0 min 0,0 UV-I 0 W/m 0,0 km/h (0 Bft)
24.10.2013 21:46 9,7 C 7,8 C 96 % 1017,1 hPa 0,0 l/m 0 min 0 min 0,0 UV-I 0 W/m 0,0 km/h (0 Bft)
24.10.2013 21:48 9,7 C 7,8 C 97 % 1017,1 hPa 0,0 l/m 0 min 0 min 0,0 UV-I 0 W/m 0,0 km/h (0 Bft)
24.10.2013 21:50 9,7 C 7,8 C 97 % 1017,1 hPa 0,0 l/m 0 min 0 min 0,0 UV-I 0 W/m 0,0 km/h (0 Bft)
24.10.2013 21:52 9,7 C 7,8 C 97 % 1017,1 hPa 0,0 l/m 0 min 0 min 0,0 UV-I 0 W/m 0,0 km/h (0 Bft)
24.10.2013 21:54 9,7 C 7,8 C 97 % 1017,1 hPa 0,0 l/m 0 min 0 min 0,0 UV-I 0 W/m 0,0 km/h (0 Bft)
24.10.2013 21:56 9,6 C 7,8 C 97 % 1017,1 hPa 0,0 l/m 0 min 0 min 0,0 UV-I 0 W/m 0,0 km/h (0 Bft)
24.10.2013 21:58 9,6 C 7,8 C 96 % 1017,1 hPa 0,0 l/m 0 min 0 min 0,0 UV-I 0 W/m 0,0 km/h (0 Bft)
24.10.2013 22:00 9,5 C 7,8 C 97 % 1017,1 hPa 0,0 l/m 0 min 0 min 0,0 UV-I 0 W/m 0,0 km/h (0 Bft)
24.10.2013 22:02 9,5 C 7,8 C 97 % 1017,2 hPa 0,0 l/m 0 min 0 min 0,0 UV-I 0 W/m 0,0 km/h (0 Bft)
24.10.2013 22:06 9,6 C 7,8 C 97 % 1017,1 hPa 0,0 l/m 0 min 0 min 0,0 UV-I 0 W/m 0,0 km/h (0 Bft)
24.10.2013 22:08 9,6 C 7,8 C 97 % 1017,1 hPa 0,0 l/m 0 min 0 min 0,0 UV-I 0 W/m 0,0 km/h (0 Bft)
24.10.2013 22:10 9,6 C 7,8 C 97 % 1017,2 hPa 0,0 l/m 0 min 0 min 0,0 UV-I 0 W/m 0,0 km/h (0 Bft)
24.10.2013 22:12 9,6 C 7,8 C 97 % 1017,2 hPa 0,0 l/m 0 min 0 min 0,0 UV-I 0 W/m 0,0 km/h (0 Bft)
24.10.2013 22:14 9,6 C 7,8 C 97 % 1017,1 hPa 0,0 l/m 0 min 0 min 0,0 UV-I 0 W/m 0,0 km/h (0 Bft)
24.10.2013 22:16 9,5 C 7,8 C 97 % 1017,1 hPa 0,0 l/m 0 min 0 min 0,0 UV-I 0 W/m 0,0 km/h (0 Bft)
24.10.2013 22:18 9,5 C 7,8 C 97 % 1017,2 hPa 0,0 l/m 0 min 0 min 0,0 UV-I 0 W/m 0,0 km/h (0 Bft)
24.10.2013 22:20 9,5 C 7,8 C 97 % 1017,2 hPa 0,0 l/m 0 min 0 min 0,0 UV-I 0 W/m 0,0 km/h (0 Bft)
24.10.2013 22:22 9,6 C 7,8 C 97 % 1017,2 hPa 0,0 l/m 0 min 0 min 0,0 UV-I 0 W/m 0,0 km/h (0 Bft)
24.10.2013 22:24 9,5 C 7,8 C 97 % 1017,2 hPa 0,0 l/m 0 min 0 min 0,0 UV-I 0 W/m 0,0 km/h (0 Bft)
24.10.2013 22:26 9,6 C 7,8 C 97 % 1017,2 hPa 0,0 l/m 0 min 0 min 0,0 UV-I 0 W/m 0,0 km/h (0 Bft)
24.10.2013 22:28 9,6 C 7,8 C 97 % 1017,2 hPa 0,0 l/m 0 min 0 min 0,0 UV-I 0 W/m 0,0 km/h (0 Bft)
24.10.2013 22:30 9,5 C 7,8 C 97 % 1017,2 hPa 0,0 l/m 0 min 0 min 0,0 UV-I 0 W/m 0,0 km/h (0 Bft)
24.10.2013 22:32 9,5 C 7,8 C 97 % 1017,2 hPa 0,0 l/m 0 min 0 min 0,0 UV-I 0 W/m 0,0 km/h (0 Bft)
24.10.2013 22:34 9,4 C 7,8 C 97 % 1017,2 hPa 0,0 l/m 0 min 0 min 0,0 UV-I 0 W/m 0,0 km/h (0 Bft)
24.10.2013 22:36 9,4 C 7,8 C 97 % 1017,3 hPa 0,0 l/m 0 min 0 min 0,0 UV-I 0 W/m 0,0 km/h (0 Bft)
24.10.2013 22:38 9,4 C 7,8 C 97 % 1017,1 hPa 0,0 l/m 0 min 0 min 0,0 UV-I 0 W/m 0,0 km/h (0 Bft)
24.10.2013 22:40 9,4 C 7,8 C 97 % 1017,1 hPa 0,0 l/m 0 min 0 min 0,0 UV-I 0 W/m 0,0 km/h (0 Bft)
24.10.2013 22:42 9,3 C 7,8 C 97 % 1017,2 hPa 0,0 l/m 0 min 0 min 0,0 UV-I 0 W/m 0,0 km/h (0 Bft)
24.10.2013 22:44 9,3 C 7,8 C 97 % 1017,2 hPa 0,0 l/m 0 min 0 min 0,0 UV-I 0 W/m 0,0 km/h (0 Bft)
24.10.2013 22:46 9,3 C 7,8 C 97 % 1017,1 hPa 0,0 l/m 0 min 0 min 0,0 UV-I 0 W/m 0,0 km/h (0 Bft)
24.10.2013 22:48 9,3 C 7,8 C 97 % 1017,1 hPa 0,0 l/m 0 min 0 min 0,0 UV-I 0 W/m 0,0 km/h (0 Bft)
24.10.2013 22:50 9,3 C 7,8 C 97 % 1017,1 hPa 0,0 l/m 0 min 0 min 0,0 UV-I 0 W/m 0,0 km/h (0 Bft)
24.10.2013 22:52 9,3 C 7,8 C 97 % 1017,1 hPa 0,0 l/m 0 min 0 min 0,0 UV-I 0 W/m 0,0 km/h (0 Bft)
24.10.2013 22:54 9,3 C 7,8 C 97 % 1017,1 hPa 0,0 l/m 0 min 0 min 0,0 UV-I 0 W/m 0,0 km/h (0 Bft)
24.10.2013 22:56 9,3 C 7,8 C 97 % 1017,0 hPa 0,0 l/m 0 min 0 min 0,0 UV-I 0 W/m 0,0 km/h (0 Bft)
24.10.2013 22:58 9,2 C 7,2 C 97 % 1017,0 hPa 0,0 l/m 0 min 0 min 0,0 UV-I 0 W/m 0,0 km/h (0 Bft)
24.10.2013 23:00 9,2 C 7,2 C 97 % 1017,0 hPa 0,0 l/m 0 min 0 min 0,0 UV-I 0 W/m 0,0 km/h (0 Bft)
24.10.2013 23:02 9,2 C 7,2 C 97 % 1017,0 hPa 0,0 l/m 0 min 0 min 0,0 UV-I 0 W/m 0,0 km/h (0 Bft)
24.10.2013 23:06 9,3 C 7,2 C 97 % 1016,9 hPa 0,0 l/m 0 min 0 min 0,0 UV-I 0 W/m 0,0 km/h (0 Bft)
24.10.2013 23:08 9,4 C 7,2 C 97 % 1016,9 hPa 0,0 l/m 0 min 0 min 0,0 UV-I 0 W/m 0,0 km/h (0 Bft)
24.10.2013 23:10 9,4 C 7,2 C 97 % 1016,7 hPa 0,0 l/m 0 min 0 min 0,0 UV-I 0 W/m 0,0 km/h (0 Bft)
24.10.2013 23:12 9,4 C 7,2 C 97 % 1016,7 hPa 0,0 l/m 0 min 0 min 0,0 UV-I 0 W/m 0,0 km/h (0 Bft)
24.10.2013 23:14 9,4 C 7,2 C 97 % 1016,6 hPa 0,0 l/m 0 min 0 min 0,0 UV-I 0 W/m 0,0 km/h (0 Bft)
24.10.2013 23:16 9,4 C 7,2 C 97 % 1016,6 hPa 0,0 l/m 0 min 0 min 0,0 UV-I 0 W/m 0,0 km/h (0 Bft)
24.10.2013 23:18 9,5 C 7,2 C 97 % 1016,6 hPa 0,0 l/m 0 min 0 min 0,0 UV-I 0 W/m 0,0 km/h (0 Bft)
24.10.2013 23:20 9,5 C 7,2 C 98 % 1016,6 hPa 0,0 l/m 0 min 0 min 0,0 UV-I 0 W/m 0,0 km/h (0 Bft)
24.10.2013 23:22 9,5 C 7,2 C 98 % 1016,6 hPa 0,0 l/m 0 min 0 min 0,0 UV-I 0 W/m 0,0 km/h (0 Bft)
24.10.2013 23:24 9,5 C 7,8 C 98 % 1016,5 hPa 0,0 l/m 0 min 0 min 0,0 UV-I 0 W/m 0,0 km/h (0 Bft)
24.10.2013 23:26 9,6 C 7,8 C 97 % 1016,5 hPa 0,0 l/m 0 min 0 min 0,0 UV-I 0 W/m 0,0 km/h (0 Bft)
24.10.2013 23:28 9,7 C 7,8 C 97 % 1016,5 hPa 0,0 l/m 0 min 0 min 0,0 UV-I 0 W/m 0,0 km/h (0 Bft)
24.10.2013 23:30 9,8 C 7,8 C 97 % 1016,5 hPa 0,0 l/m 0 min 0 min 0,0 UV-I 0 W/m 0,0 km/h (0 Bft)
24.10.2013 23:32 9,8 C 7,8 C 98 % 1016,4 hPa 0,0 l/m 0 min 0 min 0,0 UV-I 0 W/m 0,0 km/h (0 Bft)
24.10.2013 23:34 9,8 C 7,8 C 98 % 1016,4 hPa 0,0 l/m 0 min 0 min 0,0 UV-I 0 W/m 0,0 km/h (0 Bft)
24.10.2013 23:36 9,9 C 7,8 C 98 % 1016,3 hPa 0,0 l/m 0 min 0 min 0,0 UV-I 0 W/m 0,0 km/h (0 Bft)
24.10.2013 23:38 9,8 C 7,8 C 98 % 1016,4 hPa 0,0 l/m 0 min 0 min 0,0 UV-I 0 W/m 0,0 km/h (0 Bft)
24.10.2013 23:40 9,9 C 7,8 C 98 % 1016,3 hPa 0,0 l/m 0 min 0 min 0,0 UV-I 0 W/m 0,0 km/h (0 Bft)
24.10.2013 23:42 9,9 C 7,8 C 98 % 1016,3 hPa 0,0 l/m 0 min 0 min 0,0 UV-I 0 W/m 0,0 km/h (0 Bft)
24.10.2013 23:44 9,9 C 7,8 C 98 % 1016,3 hPa 0,0 l/m 0 min 0 min 0,0 UV-I 0 W/m 0,0 km/h (0 Bft)
24.10.2013 23:46 10,0 C 7,8 C 98 % 1016,2 hPa 0,0 l/m 0 min 0 min 0,0 UV-I 0 W/m 0,0 km/h (0 Bft)
24.10.2013 23:48 10,1 C 7,8 C 98 % 1016,3 hPa 0,0 l/m 0 min 0 min 0,0 UV-I 0 W/m 0,0 km/h (0 Bft)
24.10.2013 23:50 10,1 C 7,8 C 98 % 1016,3 hPa 0,0 l/m 0 min 0 min 0,0 UV-I 0 W/m 0,0 km/h (0 Bft)
24.10.2013 23:52 10,2 C 8,3 C 98 % 1016,3 hPa 0,0 l/m 0 min 0 min 0,0 UV-I 0 W/m 0,0 km/h (0 Bft)
24.10.2013 23:54 10,2 C 8,3 C 98 % 1016,3 hPa 0,0 l/m 0 min 0 min 0,0 UV-I 0 W/m 2,6 km/h (1 Bft)
24.10.2013 23:56 10,2 C 8,3 C 98 % 1016,3 hPa 0,0 l/m 0 min 0 min 0,0 UV-I 0 W/m 0,0 km/h (0 Bft)
24.10.2013 23:58 10,3 C 8,3 C 98 % 1016,3 hPa 0,0 l/m 0 min 0 min 0,0 UV-I 0 W/m 0,0 km/h (0 Bft)
_ Min-Zeit 22:58 22:58 15:40 00:00 - - - - - 00:02
Minimum _ 9,2 C 7,2 C 71 % 1011,0 hPa - - - - - 0,0 km/h (0 Bft)
_ Max-Zeit 15:44 13:48 09:24 12:02 00:00 09:36 09:24 13:24 13:48 01:26
Maximum _ 17,4 C 15,0 C 99 % 1018,6 hPa 0,0 l/m 2 min 2 min 1,0 UV-I 443 W/m 18,0 km/h
S (3 Bft)
Durchschnitt _ 12,8 C 10,9 C 91 % 1016,1 hPa #0,0 l/m #5:27 h #4 min. 0,7 UV-I 192 W/m 1,1 km/h (1 Bft)
© 2013 W. Hausmann